Wetterdaten: Donnerstag, 23.06.2022
Datum Zeit Temp. Aussen Temp. o. S. Temp +5cm Feuchte Auss Luftdruck Regen Sonnenschein Regendauer Solar Windben Empfang
23.06.2022 00:00 20,6 C 19,4 C 15,6 C 62 % 1012,1 hPa 0,0 l/m 0 min 0 min 0 W/m 3,2 km/h (1 Bft) 100,00 %
23.06.2022 00:02 20,6 C 19,4 C 15,6 C 59 % 1012,2 hPa 0,0 l/m 0 min 0 min 0 W/m 3,2 km/h (1 Bft) 97,73 %
23.06.2022 00:04 20,5 C 19,4 C 15,6 C 60 % 1012,2 hPa 0,0 l/m 0 min 0 min 0 W/m 3,2 km/h (1 Bft) 100,00 %
23.06.2022 00:10 20,4 C 19,4 C 15,6 C 60 % 1012,2 hPa 0,0 l/m 0 min 0 min 0 W/m 3,2 km/h (1 Bft) 99,26 %
23.06.2022 00:12 20,4 C 19,4 C 15,6 C 59 % 1012,2 hPa 0,0 l/m 0 min 0 min 0 W/m 3,2 km/h (1 Bft) 100,00 %
23.06.2022 00:14 20,4 C 19,4 C 15,6 C 63 % 1012,2 hPa 0,0 l/m 0 min 0 min 0 W/m 3,2 km/h (1 Bft) 100,00 %
23.06.2022 00:16 20,3 C 18,9 C 15,6 C 61 % 1012,2 hPa 0,0 l/m 0 min 0 min 0 W/m 3,2 km/h (1 Bft) 100,00 %
23.06.2022 00:18 20,3 C 18,9 C 15,6 C 60 % 1012,2 hPa 0,0 l/m 0 min 0 min 0 W/m 3,2 km/h (1 Bft) 97,87 %
23.06.2022 00:20 20,3 C 18,9 C 15,6 C 60 % 1012,2 hPa 0,0 l/m 0 min 0 min 0 W/m 3,2 km/h (1 Bft) 100,00 %
23.06.2022 00:22 20,3 C 18,9 C 15,6 C 59 % 1012,2 hPa 0,0 l/m 0 min 0 min 0 W/m 3,2 km/h (1 Bft) 100,00 %
23.06.2022 00:24 20,3 C 18,9 C 15,6 C 59 % 1012,2 hPa 0,0 l/m 0 min 0 min 0 W/m 3,2 km/h (1 Bft) 100,00 %
23.06.2022 00:26 20,2 C 18,9 C 15,6 C 59 % 1012,2 hPa 0,0 l/m 0 min 0 min 0 W/m 3,2 km/h (1 Bft) 100,00 %
23.06.2022 00:28 20,2 C 18,9 C 15,6 C 60 % 1012,3 hPa 0,0 l/m 0 min 0 min 0 W/m 3,2 km/h (1 Bft) 100,00 %
23.06.2022 00:30 20,2 C 18,9 C 15,6 C 59 % 1012,2 hPa 0,0 l/m 0 min 0 min 0 W/m 3,2 km/h (1 Bft) 100,00 %
23.06.2022 00:32 20,2 C 18,9 C 15,6 C 60 % 1012,2 hPa 0,0 l/m 0 min 0 min 0 W/m 3,2 km/h (1 Bft) 100,00 %
23.06.2022 00:34 20,2 C 18,9 C 15,6 C 59 % 1012,2 hPa 0,0 l/m 0 min 0 min 0 W/m 3,2 km/h (1 Bft) 100,00 %
23.06.2022 00:36 20,1 C 18,9 C 15,6 C 59 % 1012,2 hPa 0,0 l/m 0 min 0 min 0 W/m 3,2 km/h (1 Bft) 100,00 %
23.06.2022 00:38 20,1 C 18,9 C 15,6 C 59 % 1012,2 hPa 0,0 l/m 0 min 0 min 0 W/m 3,2 km/h (1 Bft) 100,00 %
23.06.2022 00:40 20,1 C 18,9 C 15,6 C 58 % 1012,2 hPa 0,0 l/m 0 min 0 min 0 W/m 3,2 km/h (1 Bft) 95,74 %
23.06.2022 00:42 20,1 C 18,9 C 15,6 C 60 % 1012,1 hPa 0,0 l/m 0 min 0 min 0 W/m 3,2 km/h (1 Bft) 100,00 %
23.06.2022 00:44 20,1 C 18,9 C 15,6 C 58 % 1012,1 hPa 0,0 l/m 0 min 0 min 0 W/m 3,2 km/h (1 Bft) 97,87 %
23.06.2022 00:46 20,1 C 18,9 C 15,6 C 58 % 1012,1 hPa 0,0 l/m 0 min 0 min 0 W/m 6,4 km/h (2 Bft) 100,00 %
23.06.2022 00:48 20,1 C 18,9 C 15,6 C 59 % 1012,1 hPa 0,0 l/m 0 min 0 min 0 W/m 3,2 km/h (1 Bft) 100,00 %
23.06.2022 00:50 20,1 C 18,9 C 15,6 C 60 % 1012,1 hPa 0,0 l/m 0 min 0 min 0 W/m 3,2 km/h (1 Bft) 97,87 %
23.06.2022 00:52 20,0 C 18,9 C 15,6 C 60 % 1012,1 hPa 0,0 l/m 0 min 0 min 0 W/m 3,2 km/h (1 Bft) 97,87 %
23.06.2022 00:54 20,0 C 18,9 C 15,6 C 60 % 1012,1 hPa 0,0 l/m 0 min 0 min 0 W/m 3,2 km/h (1 Bft) 97,87 %
23.06.2022 00:56 19,9 C 18,9 C 15,6 C 60 % 1012,1 hPa 0,0 l/m 0 min 0 min 0 W/m 3,2 km/h (1 Bft) 95,74 %
23.06.2022 00:58 19,9 C 18,9 C 15,6 C 59 % 1012,1 hPa 0,0 l/m 0 min 0 min 0 W/m 6,4 km/h (2 Bft) 97,87 %
23.06.2022 01:00 19,9 C 18,9 C 15,6 C 59 % 1012,1 hPa 0,0 l/m 0 min 0 min 0 W/m 3,2 km/h (1 Bft) 97,83 %
23.06.2022 01:02 19,9 C 18,9 C 15,6 C 60 % 1012,1 hPa 0,0 l/m 0 min 0 min 0 W/m 3,2 km/h (1 Bft) 95,74 %
23.06.2022 01:04 19,9 C 18,9 C 15,6 C 60 % 1012,1 hPa 0,0 l/m 0 min 0 min 0 W/m 3,2 km/h (1 Bft) 95,74 %
23.06.2022 01:06 19,8 C 18,9 C 15,6 C 60 % 1012,0 hPa 0,0 l/m 0 min 0 min 0 W/m 3,2 km/h (1 Bft) 95,74 %
23.06.2022 01:08 19,8 C 18,9 C 15,0 C 61 % 1012,0 hPa 0,0 l/m 0 min 0 min 0 W/m 6,4 km/h (2 Bft) 95,74 %
23.06.2022 01:10 19,8 C 18,9 C 15,0 C 60 % 1012,0 hPa 0,0 l/m 0 min 0 min 0 W/m 3,2 km/h (1 Bft) 93,48 %
23.06.2022 01:12 19,8 C 18,9 C 15,0 C 59 % 1012,0 hPa 0,0 l/m 0 min 0 min 0 W/m 3,2 km/h (1 Bft) 95,74 %
23.06.2022 01:14 19,7 C 18,9 C 15,6 C 59 % 1012,0 hPa 0,0 l/m 0 min 0 min 0 W/m 3,2 km/h (1 Bft) 95,74 %
23.06.2022 01:16 19,7 C 18,9 C 15,6 C 59 % 1011,9 hPa 0,0 l/m 0 min 0 min 0 W/m 3,2 km/h (1 Bft) 95,74 %
23.06.2022 01:18 19,7 C 18,9 C 15,6 C 60 % 1011,9 hPa 0,0 l/m 0 min 0 min 0 W/m 9,7 km/h (2 Bft) 97,87 %
23.06.2022 01:20 19,7 C 18,9 C 15,6 C 60 % 1011,9 hPa 0,0 l/m 0 min 0 min 0 W/m 6,4 km/h (2 Bft) 95,74 %
23.06.2022 01:22 19,7 C 18,9 C 15,6 C 60 % 1011,9 hPa 0,0 l/m 0 min 0 min 0 W/m 3,2 km/h (1 Bft) 95,74 %
23.06.2022 01:24 19,7 C 18,9 C 15,6 C 59 % 1011,9 hPa 0,0 l/m 0 min 0 min 0 W/m 3,2 km/h (1 Bft) 95,65 %
23.06.2022 01:26 19,7 C 18,9 C 15,0 C 60 % 1011,9 hPa 0,0 l/m 0 min 0 min 0 W/m 6,4 km/h (2 Bft) 95,74 %
23.06.2022 01:28 19,7 C 18,9 C 15,0 C 59 % 1011,8 hPa 0,0 l/m 0 min 0 min 0 W/m 3,2 km/h (1 Bft) 95,74 %
23.06.2022 01:30 19,7 C 18,9 C 15,0 C 60 % 1011,9 hPa 0,0 l/m 0 min 0 min 0 W/m 6,4 km/h (2 Bft) 93,62 %
23.06.2022 01:32 19,6 C 18,9 C 15,0 C 59 % 1011,8 hPa 0,0 l/m 0 min 0 min 0 W/m 6,4 km/h (2 Bft) 91,49 %
23.06.2022 01:34 19,6 C 18,9 C 15,0 C 60 % 1011,8 hPa 0,0 l/m 0 min 0 min 0 W/m 9,7 km/h (2 Bft) 97,83 %
23.06.2022 01:36 19,6 C 18,9 C 15,0 C 60 % 1011,8 hPa 0,0 l/m 0 min 0 min 0 W/m 9,7 km/h (2 Bft) 100,00 %
23.06.2022 01:38 19,6 C 18,3 C 15,0 C 60 % 1011,8 hPa 0,0 l/m 0 min 0 min 0 W/m 6,4 km/h (2 Bft) 100,00 %
23.06.2022 01:40 19,6 C 18,3 C 15,0 C 60 % 1011,8 hPa 0,0 l/m 0 min 0 min 0 W/m 3,2 km/h (1 Bft) 100,00 %
23.06.2022 01:42 19,6 C 18,3 C 15,0 C 60 % 1011,8 hPa 0,0 l/m 0 min 0 min 0 W/m 3,2 km/h (1 Bft) 100,00 %
23.06.2022 01:44 19,5 C 18,3 C 15,0 C 60 % 1011,8 hPa 0,0 l/m 0 min 0 min 0 W/m 6,4 km/h (2 Bft) 100,00 %
23.06.2022 01:46 19,5 C 18,3 C 15,0 C 60 % 1011,8 hPa 0,0 l/m 0 min 0 min 0 W/m 6,4 km/h (2 Bft) 97,83 %
23.06.2022 01:48 19,4 C 18,3 C 15,0 C 60 % 1011,8 hPa 0,0 l/m 0 min 0 min 0 W/m 3,2 km/h (1 Bft) 100,00 %
23.06.2022 01:50 19,4 C 18,3 C 15,0 C 60 % 1011,8 hPa 0,0 l/m 0 min 0 min 0 W/m 3,2 km/h (1 Bft) 97,87 %
23.06.2022 01:52 19,4 C 18,3 C 15,0 C 60 % 1011,8 hPa 0,0 l/m 0 min 0 min 0 W/m 3,2 km/h (1 Bft) 95,74 %
23.06.2022 01:54 19,4 C 18,3 C 15,0 C 61 % 1011,8 hPa 0,0 l/m 0 min 0 min 0 W/m 3,2 km/h (1 Bft) 97,87 %
23.06.2022 01:56 19,3 C 18,3 C 15,0 C 61 % 1011,8 hPa 0,0 l/m 0 min 0 min 0 W/m 3,2 km/h (1 Bft) 95,74 %
23.06.2022 01:58 19,3 C 18,3 C 15,0 C 61 % 1011,9 hPa 0,0 l/m 0 min 0 min 0 W/m 3,2 km/h (1 Bft) 97,83 %
23.06.2022 02:00 19,3 C 18,3 C 14,4 C 62 % 1011,9 hPa 0,0 l/m 0 min 0 min 0 W/m 6,4 km/h (2 Bft) 97,87 %
23.06.2022 02:02 19,2 C 18,3 C 14,4 C 61 % 1011,8 hPa 0,0 l/m 0 min 0 min 0 W/m 3,2 km/h (1 Bft) 93,62 %
23.06.2022 02:04 19,2 C 18,3 C 14,4 C 61 % 1011,8 hPa 0,0 l/m 0 min 0 min 0 W/m 3,2 km/h (1 Bft) 97,87 %
23.06.2022 02:06 19,2 C 18,3 C 14,4 C 62 % 1011,8 hPa 0,0 l/m 0 min 0 min 0 W/m 3,2 km/h (1 Bft) 95,74 %
23.06.2022 02:08 19,1 C 18,3 C 14,4 C 62 % 1011,8 hPa 0,0 l/m 0 min 0 min 0 W/m 3,2 km/h (1 Bft) 97,87 %
23.06.2022 02:10 19,1 C 18,3 C 14,4 C 62 % 1011,8 hPa 0,0 l/m 0 min 0 min 0 W/m 3,2 km/h (1 Bft) 95,65 %
23.06.2022 02:12 19,1 C 17,8 C 14,4 C 62 % 1011,9 hPa 0,0 l/m 0 min 0 min 0 W/m 3,2 km/h (1 Bft) 93,62 %
23.06.2022 02:14 19,0 C 17,8 C 14,4 C 63 % 1011,8 hPa 0,0 l/m 0 min 0 min 0 W/m 3,2 km/h (1 Bft) 97,87 %
23.06.2022 02:16 19,0 C 17,8 C 14,4 C 64 % 1011,8 hPa 0,0 l/m 0 min 0 min 0 W/m 3,2 km/h (1 Bft) 97,87 %
23.06.2022 02:18 18,9 C 17,8 C 14,4 C 64 % 1011,9 hPa 0,0 l/m 0 min 0 min 0 W/m 3,2 km/h (1 Bft) 97,87 %
23.06.2022 02:20 18,9 C 17,8 C 14,4 C 64 % 1011,9 hPa 0,0 l/m 0 min 0 min 0 W/m 3,2 km/h (1 Bft) 97,87 %
23.06.2022 02:22 18,8 C 17,8 C 14,4 C 64 % 1011,8 hPa 0,0 l/m 0 min 0 min 0 W/m 3,2 km/h (1 Bft) 97,83 %
23.06.2022 02:24 18,8 C 17,8 C 14,4 C 64 % 1011,8 hPa 0,0 l/m 0 min 0 min 0 W/m 3,2 km/h (1 Bft) 97,87 %
23.06.2022 02:26 18,8 C 17,8 C 13,9 C 65 % 1011,9 hPa 0,0 l/m 0 min 0 min 0 W/m 3,2 km/h (1 Bft) 97,87 %
23.06.2022 02:28 18,8 C 17,8 C 13,9 C 65 % 1011,9 hPa 0,0 l/m 0 min 0 min 0 W/m 0,0 km/h (0 Bft) 95,74 %
23.06.2022 02:30 18,7 C 17,8 C 13,9 C 65 % 1011,9 hPa 0,0 l/m 0 min 0 min 0 W/m 0,0 km/h (0 Bft) 97,87 %
23.06.2022 02:32 18,7 C 17,2 C 13,9 C 66 % 1011,8 hPa 0,0 l/m 0 min 0 min 0 W/m 0,0 km/h (0 Bft) 97,87 %
23.06.2022 02:34 18,7 C 17,2 C 13,9 C 66 % 1011,8 hPa 0,0 l/m 0 min 0 min 0 W/m 0,0 km/h (0 Bft) 97,83 %
23.06.2022 02:36 18,6 C 17,2 C 13,9 C 67 % 1011,8 hPa 0,0 l/m 0 min 0 min 0 W/m 3,2 km/h (1 Bft) 97,87 %
23.06.2022 02:38 18,6 C 17,2 C 13,9 C 67 % 1011,8 hPa 0,0 l/m 0 min 0 min 0 W/m 0,0 km/h (0 Bft) 97,87 %
23.06.2022 02:40 18,6 C 17,2 C 13,9 C 68 % 1011,8 hPa 0,0 l/m 0 min 0 min 0 W/m 3,2 km/h (1 Bft) 100,00 %
23.06.2022 02:42 18,5 C 17,2 C 13,9 C 69 % 1011,7 hPa 0,0 l/m 0 min 0 min 0 W/m 3,2 km/h (1 Bft) 100,00 %
23.06.2022 02:44 18,5 C 17,2 C 13,9 C 69 % 1011,8 hPa 0,0 l/m 0 min 0 min 0 W/m 0,0 km/h (0 Bft) 100,00 %
23.06.2022 02:46 18,4 C 17,2 C 13,3 C 68 % 1011,8 hPa 0,0 l/m 0 min 0 min 0 W/m 3,2 km/h (1 Bft) 100,00 %
23.06.2022 02:48 18,4 C 17,2 C 13,3 C 68 % 1011,8 hPa 0,0 l/m 0 min 0 min 0 W/m 0,0 km/h (0 Bft) 100,00 %
23.06.2022 02:50 18,3 C 17,2 C 13,3 C 67 % 1011,8 hPa 0,0 l/m 0 min 0 min 0 W/m 3,2 km/h (1 Bft) 97,87 %
23.06.2022 02:52 18,3 C 17,2 C 13,3 C 67 % 1011,7 hPa 0,0 l/m 0 min 0 min 0 W/m 3,2 km/h (1 Bft) 100,00 %
23.06.2022 02:54 18,3 C 17,2 C 13,3 C 67 % 1011,7 hPa 0,0 l/m 0 min 0 min 0 W/m 3,2 km/h (1 Bft) 97,87 %
23.06.2022 02:56 18,2 C 17,2 C 13,9 C 66 % 1011,7 hPa 0,0 l/m 0 min 0 min 0 W/m 3,2 km/h (1 Bft) 97,87 %
23.06.2022 02:58 18,2 C 17,2 C 13,9 C 66 % 1011,7 hPa 0,0 l/m 0 min 0 min 0 W/m 3,2 km/h (1 Bft) 97,83 %
23.06.2022 03:00 18,2 C 17,2 C 13,9 C 67 % 1011,6 hPa 0,0 l/m 0 min 0 min 0 W/m 0,0 km/h (0 Bft) 97,87 %
23.06.2022 03:02 18,2 C 17,2 C 13,9 C 67 % 1011,6 hPa 0,0 l/m 0 min 0 min 0 W/m 3,2 km/h (1 Bft) 97,87 %
23.06.2022 03:04 18,1 C 17,2 C 13,9 C 68 % 1011,6 hPa 0,0 l/m 0 min 0 min 0 W/m 3,2 km/h (1 Bft) 97,87 %
23.06.2022 03:06 18,1 C 17,2 C 13,9 C 68 % 1011,5 hPa 0,0 l/m 0 min 0 min 0 W/m 3,2 km/h (1 Bft) 97,87 %
23.06.2022 03:08 18,1 C 17,2 C 13,9 C 68 % 1011,6 hPa 0,0 l/m 0 min 0 min 0 W/m 0,0 km/h (0 Bft) 93,62 %
23.06.2022 03:10 18,1 C 17,2 C 13,9 C 67 % 1011,5 hPa 0,0 l/m 0 min 0 min 0 W/m 3,2 km/h (1 Bft) 97,83 %
23.06.2022 03:12 18,1 C 17,2 C 13,3 C 68 % 1011,6 hPa 0,0 l/m 0 min 0 min 0 W/m 3,2 km/h (1 Bft) 97,87 %
23.06.2022 03:14 18,0 C 17,2 C 13,3 C 67 % 1011,5 hPa 0,0 l/m 0 min 0 min 0 W/m 6,4 km/h (2 Bft) 97,87 %
23.06.2022 03:16 17,9 C 17,2 C 13,3 C 66 % 1011,5 hPa 0,0 l/m 0 min 0 min 0 W/m 0,0 km/h (0 Bft) 95,74 %
23.06.2022 03:18 17,9 C 17,2 C 13,9 C 67 % 1011,6 hPa 0,0 l/m 0 min 0 min 0 W/m 3,2 km/h (1 Bft) 97,87 %
23.06.2022 03:20 17,9 C 16,7 C 13,3 C 68 % 1011,6 hPa 0,0 l/m 0 min 0 min 0 W/m 3,2 km/h (1 Bft) 97,87 %
23.06.2022 03:22 17,9 C 16,7 C 13,3 C 68 % 1011,6 hPa 0,0 l/m 0 min 0 min 0 W/m 3,2 km/h (1 Bft) 100,00 %
23.06.2022 03:24 17,8 C 16,7 C 13,3 C 68 % 1011,6 hPa 0,0 l/m 0 min 0 min 0 W/m 3,2 km/h (1 Bft) 100,00 %
23.06.2022 03:26 17,8 C 16,7 C 13,3 C 68 % 1011,6 hPa 0,0 l/m 0 min 0 min 0 W/m 3,2 km/h (1 Bft) 97,87 %
23.06.2022 03:28 17,8 C 16,7 C 13,3 C 68 % 1011,6 hPa 0,0 l/m 0 min 0 min 0 W/m 3,2 km/h (1 Bft) 95,74 %
23.06.2022 03:30 17,8 C 16,7 C 13,3 C 68 % 1011,6 hPa 0,0 l/m 0 min 0 min 0 W/m 3,2 km/h (1 Bft) 97,87 %
23.06.2022 03:32 17,7 C 16,7 C 13,3 C 68 % 1011,6 hPa 0,0 l/m 0 min 0 min 0 W/m 3,2 km/h (1 Bft) 95,74 %
23.06.2022 03:34 17,7 C 16,7 C 13,3 C 68 % 1011,7 hPa 0,0 l/m 0 min 0 min 0 W/m 0,0 km/h (0 Bft) 97,83 %
23.06.2022 03:36 17,7 C 16,7 C 13,3 C 68 % 1011,7 hPa 0,0 l/m 0 min 0 min 0 W/m 3,2 km/h (1 Bft) 97,87 %
23.06.2022 03:38 17,7 C 16,7 C 13,3 C 68 % 1011,7 hPa 0,0 l/m 0 min 0 min 0 W/m 3,2 km/h (1 Bft) 97,87 %
23.06.2022 03:40 17,7 C 16,7 C 13,3 C 69 % 1011,7 hPa 0,0 l/m 0 min 0 min 0 W/m 3,2 km/h (1 Bft) 97,87 %
23.06.2022 03:42 17,6 C 16,7 C 13,3 C 69 % 1011,8 hPa 0,0 l/m 0 min 0 min 0 W/m 3,2 km/h (1 Bft) 97,87 %
23.06.2022 03:44 17,6 C 16,7 C 13,3 C 69 % 1011,7 hPa 0,0 l/m 0 min 0 min 0 W/m 0,0 km/h (0 Bft) 97,87 %
23.06.2022 03:46 17,6 C 16,7 C 12,8 C 69 % 1011,7 hPa 0,0 l/m 0 min 0 min 0 W/m 3,2 km/h (1 Bft) 97,83 %
23.06.2022 03:48 17,6 C 16,7 C 12,8 C 70 % 1011,8 hPa 0,0 l/m 0 min 0 min 0 W/m 3,2 km/h (1 Bft) 95,74 %
23.06.2022 03:50 17,6 C 16,7 C 12,8 C 70 % 1011,8 hPa 0,0 l/m 0 min 0 min 0 W/m 0,0 km/h (0 Bft) 97,87 %
23.06.2022 03:52 17,5 C 16,7 C 12,8 C 70 % 1011,7 hPa 0,0 l/m 0 min 0 min 0 W/m 0,0 km/h (0 Bft) 97,87 %
23.06.2022 03:54 17,5 C 16,7 C 12,8 C 70 % 1011,7 hPa 0,0 l/m 0 min 0 min 0 W/m 0,0 km/h (0 Bft) 97,87 %
23.06.2022 03:56 17,5 C 16,7 C 12,8 C 70 % 1011,8 hPa 0,0 l/m 0 min 0 min 0 W/m 3,2 km/h (1 Bft) 97,87 %
23.06.2022 03:58 17,5 C 16,7 C 13,3 C 71 % 1011,8 hPa 0,0 l/m 0 min 0 min 0 W/m 3,2 km/h (1 Bft) 97,83 %
23.06.2022 04:00 17,4 C 16,1 C 12,8 C 70 % 1011,7 hPa 0,0 l/m 0 min 0 min 0 W/m 3,2 km/h (1 Bft) 97,87 %
23.06.2022 04:02 17,4 C 16,1 C 12,8 C 71 % 1011,6 hPa 0,0 l/m 0 min 0 min 0 W/m 3,2 km/h (1 Bft) 100,00 %
23.06.2022 04:04 17,4 C 16,1 C 12,8 C 72 % 1011,6 hPa 0,0 l/m 0 min 0 min 0 W/m 3,2 km/h (1 Bft) 100,00 %
23.06.2022 04:06 17,4 C 16,1 C 12,8 C 72 % 1011,6 hPa 0,0 l/m 0 min 0 min 0 W/m 3,2 km/h (1 Bft) 93,62 %
23.06.2022 04:08 17,3 C 16,1 C 12,8 C 72 % 1011,6 hPa 0,0 l/m 0 min 0 min 0 W/m 0,0 km/h (0 Bft) 100,00 %
23.06.2022 04:10 17,3 C 16,1 C 12,8 C 72 % 1011,6 hPa 0,0 l/m 0 min 0 min 0 W/m 0,0 km/h (0 Bft) 100,00 %
23.06.2022 04:12 17,3 C 16,1 C 12,8 C 72 % 1011,6 hPa 0,0 l/m 0 min 0 min 0 W/m 0,0 km/h (0 Bft) 100,00 %
23.06.2022 04:14 17,3 C 16,1 C 12,8 C 72 % 1011,6 hPa 0,0 l/m 0 min 0 min 0 W/m 0,0 km/h (0 Bft) 100,00 %
23.06.2022 04:16 17,2 C 16,1 C 12,8 C 72 % 1011,6 hPa 0,0 l/m 0 min 0 min 0 W/m 3,2 km/h (1 Bft) 100,00 %
23.06.2022 04:18 17,2 C 16,1 C 12,8 C 72 % 1011,7 hPa 0,0 l/m 0 min 0 min 0 W/m 0,0 km/h (0 Bft) 100,00 %
23.06.2022 04:20 17,2 C 16,1 C 12,8 C 72 % 1011,8 hPa 0,0 l/m 0 min 0 min 0 W/m 0,0 km/h (0 Bft) 97,87 %
23.06.2022 04:22 17,2 C 16,1 C 12,8 C 72 % 1011,7 hPa 0,0 l/m 0 min 0 min 0 W/m 0,0 km/h (0 Bft) 100,00 %
23.06.2022 04:24 17,1 C 16,1 C 12,8 C 72 % 1011,7 hPa 0,0 l/m 0 min 0 min 0 W/m 0,0 km/h (0 Bft) 100,00 %
23.06.2022 04:26 17,1 C 16,1 C 12,8 C 73 % 1011,8 hPa 0,0 l/m 0 min 0 min 0 W/m 0,0 km/h (0 Bft) 100,00 %
23.06.2022 04:28 17,1 C 16,1 C 12,8 C 73 % 1011,8 hPa 0,0 l/m 0 min 0 min 0 W/m 0,0 km/h (0 Bft) 100,00 %
23.06.2022 04:30 17,1 C 16,1 C 12,8 C 73 % 1011,7 hPa 0,0 l/m 0 min 0 min 0 W/m 0,0 km/h (0 Bft) 100,00 %
23.06.2022 04:32 17,1 C 16,1 C 12,8 C 73 % 1011,6 hPa 0,0 l/m 0 min 0 min 0 W/m 0,0 km/h (0 Bft) 97,83 %
23.06.2022 04:34 17,1 C 16,1 C 12,8 C 73 % 1011,7 hPa 0,0 l/m 0 min 0 min 0 W/m 0,0 km/h (0 Bft) 100,00 %
23.06.2022 04:36 17,1 C 16,1 C 12,8 C 73 % 1011,6 hPa 0,0 l/m 0 min 0 min 0 W/m 0,0 km/h (0 Bft) 97,87 %
23.06.2022 04:38 17,0 C 16,1 C 12,8 C 73 % 1011,7 hPa 0,0 l/m 0 min 0 min 0 W/m 0,0 km/h (0 Bft) 97,87 %
23.06.2022 04:40 17,0 C 16,1 C 12,8 C 73 % 1011,7 hPa 0,0 l/m 0 min 0 min 0 W/m 0,0 km/h (0 Bft) 95,65 %
23.06.2022 04:42 17,0 C 16,1 C 12,8 C 74 % 1011,7 hPa 0,0 l/m 0 min 0 min 0 W/m 0,0 km/h (0 Bft) 97,87 %
23.06.2022 04:44 16,9 C 16,1 C 12,8 C 74 % 1011,7 hPa 0,0 l/m 0 min 0 min 0 W/m 0,0 km/h (0 Bft) 97,87 %
23.06.2022 04:46 16,9 C 16,1 C 12,8 C 74 % 1011,6 hPa 0,0 l/m 0 min 0 min 0 W/m 0,0 km/h (0 Bft) 97,87 %
23.06.2022 04:48 16,9 C 16,1 C 12,8 C 74 % 1011,7 hPa 0,0 l/m 0 min 0 min 0 W/m 0,0 km/h (0 Bft) 97,87 %
23.06.2022 04:50 16,9 C 16,1 C 12,8 C 75 % 1011,8 hPa 0,0 l/m 0 min 0 min 0 W/m 0,0 km/h (0 Bft) 97,87 %
23.06.2022 04:52 16,9 C 15,6 C 12,8 C 75 % 1011,8 hPa 0,0 l/m 0 min 0 min 0 W/m 0,0 km/h (0 Bft) 97,83 %
23.06.2022 04:54 16,9 C 15,6 C 12,2 C 75 % 1011,7 hPa 0,0 l/m 0 min 0 min 0 W/m 3,2 km/h (1 Bft) 97,87 %
23.06.2022 04:56 16,9 C 15,6 C 12,2 C 75 % 1011,7 hPa 0,0 l/m 0 min 0 min 0 W/m 0,0 km/h (0 Bft) 97,87 %
23.06.2022 04:58 16,9 C 15,6 C 12,8 C 75 % 1011,7 hPa 0,0 l/m 0 min 0 min 0 W/m 0,0 km/h (0 Bft) 97,87 %
23.06.2022 05:00 16,8 C 15,6 C 12,2 C 75 % 1011,7 hPa 0,0 l/m 0 min 0 min 0 W/m 0,0 km/h (0 Bft) 97,87 %
23.06.2022 05:02 16,8 C 15,6 C 12,2 C 76 % 1011,7 hPa 0,0 l/m 0 min 0 min 0 W/m 0,0 km/h (0 Bft) 93,62 %
23.06.2022 05:04 16,8 C 15,6 C 12,2 C 76 % 1011,7 hPa 0,0 l/m 0 min 0 min 0 W/m 0,0 km/h (0 Bft) 95,65 %
23.06.2022 05:06 16,8 C 15,6 C 12,2 C 76 % 1011,7 hPa 0,0 l/m 0 min 0 min 0 W/m 0,0 km/h (0 Bft) 95,74 %
23.06.2022 05:08 16,7 C 15,6 C 12,2 C 76 % 1011,8 hPa 0,0 l/m 0 min 0 min 0 W/m 0,0 km/h (0 Bft) 97,87 %
23.06.2022 05:10 16,7 C 15,6 C 12,2 C 76 % 1011,7 hPa 0,0 l/m 0 min 0 min 0 W/m 0,0 km/h (0 Bft) 97,87 %
23.06.2022 05:12 16,7 C 15,6 C 12,2 C 77 % 1011,6 hPa 0,0 l/m 0 min 0 min 0 W/m 0,0 km/h (0 Bft) 95,74 %
23.06.2022 05:14 16,7 C 15,6 C 12,2 C 77 % 1011,7 hPa 0,0 l/m 0 min 0 min 0 W/m 3,2 km/h (1 Bft) 97,87 %
23.06.2022 05:16 16,6 C 15,6 C 12,2 C 77 % 1011,6 hPa 0,0 l/m 0 min 0 min 0 W/m 3,2 km/h (1 Bft) 97,83 %
23.06.2022 05:18 16,6 C 15,6 C 12,2 C 77 % 1011,7 hPa 0,0 l/m 0 min 0 min 0 W/m 3,2 km/h (1 Bft) 95,74 %
23.06.2022 05:20 16,6 C 15,6 C 12,2 C 76 % 1011,8 hPa 0,0 l/m 0 min 0 min 4 W/m 0,0 km/h (0 Bft) 97,87 %
23.06.2022 05:22 16,6 C 15,6 C 12,2 C 76 % 1011,7 hPa 0,0 l/m 0 min 0 min 5 W/m 0,0 km/h (0 Bft) 97,87 %
23.06.2022 05:24 16,5 C 15,6 C 12,8 C 76 % 1011,7 hPa 0,0 l/m 0 min 0 min 5 W/m 0,0 km/h (0 Bft) 97,87 %
23.06.2022 05:26 16,5 C 15,6 C 12,8 C 77 % 1011,7 hPa 0,0 l/m 0 min 0 min 6 W/m 0,0 km/h (0 Bft) 97,87 %
23.06.2022 05:28 16,5 C 15,6 C 12,2 C 77 % 1011,8 hPa 0,0 l/m 0 min 0 min 7 W/m 0,0 km/h (0 Bft) 97,83 %
23.06.2022 05:30 16,5 C 15,6 C 12,2 C 77 % 1011,7 hPa 0,0 l/m 0 min 0 min 7 W/m 0,0 km/h (0 Bft) 97,87 %
23.06.2022 05:32 16,5 C 15,6 C 12,8 C 77 % 1011,7 hPa 0,0 l/m 0 min 0 min 8 W/m 0,0 km/h (0 Bft) 97,87 %
23.06.2022 05:34 16,4 C 15,6 C 12,2 C 77 % 1011,7 hPa 0,0 l/m 0 min 0 min 9 W/m 0,0 km/h (0 Bft) 95,74 %
23.06.2022 05:36 16,4 C 15,6 C 12,2 C 77 % 1011,8 hPa 0,0 l/m 0 min 0 min 9 W/m 0,0 km/h (0 Bft) 95,74 %
23.06.2022 05:38 16,4 C 15,6 C 12,2 C 77 % 1011,8 hPa 0,0 l/m 0 min 0 min 11 W/m 0,0 km/h (0 Bft) 97,87 %
23.06.2022 05:40 16,4 C 15,6 C 12,2 C 77 % 1011,7 hPa 0,0 l/m 0 min 0 min 11 W/m 3,2 km/h (1 Bft) 97,83 %
23.06.2022 05:42 16,4 C 15,6 C 12,2 C 77 % 1011,7 hPa 0,0 l/m 0 min 0 min 11 W/m 0,0 km/h (0 Bft) 97,87 %
23.06.2022 05:44 16,4 C 15,6 C 12,2 C 77 % 1011,7 hPa 0,0 l/m 0 min 0 min 12 W/m 0,0 km/h (0 Bft) 95,74 %
23.06.2022 05:46 16,4 C 15,6 C 12,2 C 77 % 1011,8 hPa 0,0 l/m 0 min 0 min 12 W/m 3,2 km/h (1 Bft) 95,74 %
23.06.2022 05:48 16,4 C 15,6 C 12,2 C 77 % 1011,8 hPa 0,0 l/m 0 min 0 min 12 W/m 0,0 km/h (0 Bft) 97,87 %
23.06.2022 05:50 16,4 C 15,6 C 12,2 C 77 % 1011,7 hPa 0,0 l/m 0 min 0 min 14 W/m 0,0 km/h (0 Bft) 95,74 %
23.06.2022 05:52 16,4 C 15,6 C 12,8 C 78 % 1011,8 hPa 0,0 l/m 0 min 0 min 14 W/m 0,0 km/h (0 Bft) 95,65 %
23.06.2022 05:54 16,4 C 15,6 C 12,8 C 78 % 1011,7 hPa 0,0 l/m 0 min 0 min 15 W/m 0,0 km/h (0 Bft) 93,62 %
23.06.2022 05:56 16,4 C 15,6 C 12,8 C 78 % 1011,7 hPa 0,0 l/m 0 min 0 min 16 W/m 0,0 km/h (0 Bft) 95,74 %
23.06.2022 05:58 16,4 C 15,6 C 12,8 C 78 % 1011,7 hPa 0,0 l/m 0 min 0 min 16 W/m 0,0 km/h (0 Bft) 93,62 %
23.06.2022 06:00 16,4 C 15,6 C 12,8 C 78 % 1011,8 hPa 0,0 l/m 0 min 0 min 18 W/m 0,0 km/h (0 Bft) 97,87 %
23.06.2022 06:02 16,4 C 15,6 C 12,8 C 78 % 1011,8 hPa 0,0 l/m 0 min 0 min 18 W/m 0,0 km/h (0 Bft) 97,87 %
23.06.2022 06:04 16,4 C 15,6 C 12,8 C 78 % 1011,8 hPa 0,0 l/m 0 min 0 min 19 W/m 0,0 km/h (0 Bft) 97,83 %
23.06.2022 06:08 16,4 C 15,6 C 12,8 C 78 % 1011,7 hPa 0,0 l/m 0 min 0 min 19 W/m 3,2 km/h (1 Bft) 97,56 %
23.06.2022 06:10 16,4 C 15,6 C 12,2 C 78 % 1011,7 hPa 0,0 l/m 0 min 0 min 19 W/m 3,2 km/h (1 Bft) 97,87 %
23.06.2022 06:12 16,4 C 15,6 C 12,2 C 78 % 1011,8 hPa 0,0 l/m 0 min 0 min 21 W/m 3,2 km/h (1 Bft) 97,87 %
23.06.2022 06:14 16,4 C 15,6 C 12,2 C 79 % 1011,7 hPa 0,0 l/m 0 min 0 min 21 W/m 0,0 km/h (0 Bft) 97,87 %
23.06.2022 06:16 16,4 C 15,6 C 12,2 C 79 % 1011,8 hPa 0,0 l/m 0 min 0 min 21 W/m 0,0 km/h (0 Bft) 96,23 %
23.06.2022 06:18 16,4 C 15,6 C 12,2 C 79 % 1011,7 hPa 0,0 l/m 0 min 0 min 22 W/m 0,0 km/h (0 Bft) 97,87 %
23.06.2022 06:20 16,4 C 15,6 C 12,2 C 79 % 1011,7 hPa 0,0 l/m 0 min 0 min 23 W/m 0,0 km/h (0 Bft) 95,74 %
23.06.2022 06:22 16,4 C 15,6 C 12,2 C 79 % 1011,7 hPa 0,0 l/m 0 min 0 min 23 W/m 0,0 km/h (0 Bft) 95,65 %
23.06.2022 06:24 16,4 C 15,6 C 12,8 C 79 % 1011,7 hPa 0,0 l/m 0 min 0 min 25 W/m 0,0 km/h (0 Bft) 93,62 %
23.06.2022 06:26 16,4 C 16,1 C 12,8 C 79 % 1011,7 hPa 0,0 l/m 0 min 0 min 25 W/m 0,0 km/h (0 Bft) 93,62 %
23.06.2022 06:28 16,4 C 16,1 C 12,8 C 79 % 1011,7 hPa 0,0 l/m 0 min 0 min 26 W/m 0,0 km/h (0 Bft) 97,87 %
23.06.2022 06:30 16,4 C 16,1 C 12,8 C 79 % 1011,7 hPa 0,0 l/m 0 min 0 min 26 W/m 0,0 km/h (0 Bft) 97,87 %
23.06.2022 06:32 16,4 C 16,1 C 12,8 C 79 % 1011,6 hPa 0,0 l/m 0 min 0 min 28 W/m 0,0 km/h (0 Bft) 98,00 %
23.06.2022 06:34 16,4 C 16,1 C 12,8 C 79 % 1011,7 hPa 0,0 l/m 0 min 0 min 28 W/m 3,2 km/h (1 Bft) 97,83 %
23.06.2022 06:36 16,5 C 16,1 C 12,8 C 79 % 1011,7 hPa 0,0 l/m 0 min 0 min 28 W/m 0,0 km/h (0 Bft) 97,87 %
23.06.2022 06:38 16,5 C 16,7 C 12,8 C 80 % 1011,7 hPa 0,0 l/m 0 min 0 min 29 W/m 3,2 km/h (1 Bft) 97,87 %
23.06.2022 06:40 16,6 C 16,7 C 12,8 C 79 % 1011,7 hPa 0,0 l/m 0 min 0 min 30 W/m 3,2 km/h (1 Bft) 97,87 %
23.06.2022 06:42 16,6 C 16,7 C 13,3 C 79 % 1011,8 hPa 0,0 l/m 0 min 0 min 32 W/m 3,2 km/h (1 Bft) 97,83 %
23.06.2022 06:44 16,6 C 16,7 C 13,3 C 79 % 1011,7 hPa 0,0 l/m 0 min 0 min 32 W/m 3,2 km/h (1 Bft) 97,83 %
23.06.2022 06:46 16,6 C 16,7 C 13,3 C 79 % 1011,7 hPa 0,0 l/m 0 min 0 min 32 W/m 3,2 km/h (1 Bft) 95,74 %
23.06.2022 06:48 16,7 C 16,7 C 13,3 C 79 % 1011,7 hPa 0,0 l/m 0 min 0 min 32 W/m 3,2 km/h (1 Bft) 97,87 %
23.06.2022 06:50 16,7 C 17,2 C 13,3 C 79 % 1011,8 hPa 0,0 l/m 0 min 0 min 33 W/m 3,2 km/h (1 Bft) 100,00 %
23.06.2022 06:52 16,7 C 17,2 C 13,9 C 79 % 1011,8 hPa 0,0 l/m 0 min 0 min 33 W/m 3,2 km/h (1 Bft) 100,00 %
23.06.2022 06:54 16,8 C 17,2 C 13,9 C 79 % 1011,9 hPa 0,0 l/m 0 min 0 min 34 W/m 3,2 km/h (1 Bft) 100,00 %
23.06.2022 06:56 16,9 C 17,2 C 13,9 C 79 % 1011,8 hPa 0,0 l/m 0 min 0 min 35 W/m 3,2 km/h (1 Bft) 100,00 %
23.06.2022 06:58 16,9 C 17,2 C 13,9 C 79 % 1011,8 hPa 0,0 l/m 0 min 0 min 35 W/m 3,2 km/h (1 Bft) 100,00 %
23.06.2022 07:00 17,0 C 17,2 C 13,9 C 80 % 1011,8 hPa 0,0 l/m 0 min 0 min 37 W/m 3,2 km/h (1 Bft) 100,00 %
23.06.2022 07:02 17,1 C 17,2 C 13,9 C 80 % 1011,8 hPa 0,0 l/m 0 min 0 min 37 W/m 3,2 km/h (1 Bft) 100,00 %
23.06.2022 07:04 17,2 C 17,8 C 13,9 C 80 % 1011,8 hPa 0,0 l/m 0 min 0 min 37 W/m 3,2 km/h (1 Bft) 100,00 %
23.06.2022 07:06 17,2 C 17,8 C 13,9 C 80 % 1011,8 hPa 0,0 l/m 0 min 0 min 39 W/m 3,2 km/h (1 Bft) 100,00 %
23.06.2022 07:08 17,3 C 17,8 C 13,9 C 80 % 1011,8 hPa 0,0 l/m 0 min 0 min 39 W/m 3,2 km/h (1 Bft) 100,00 %
23.06.2022 07:10 17,4 C 17,8 C 14,4 C 80 % 1011,8 hPa 0,0 l/m 0 min 0 min 40 W/m 3,2 km/h (1 Bft) 100,00 %
23.06.2022 07:12 17,4 C 17,8 C 14,4 C 80 % 1011,8 hPa 0,0 l/m 0 min 0 min 40 W/m 3,2 km/h (1 Bft) 100,00 %
23.06.2022 07:14 17,5 C 17,8 C 14,4 C 80 % 1011,9 hPa 0,0 l/m 0 min 0 min 42 W/m 3,2 km/h (1 Bft) 100,00 %
23.06.2022 07:16 17,6 C 17,8 C 14,4 C 80 % 1011,9 hPa 0,0 l/m 0 min 0 min 42 W/m 3,2 km/h (1 Bft) 100,00 %
23.06.2022 07:18 17,6 C 18,3 C 14,4 C 79 % 1011,9 hPa 0,0 l/m 0 min 0 min 44 W/m 3,2 km/h (1 Bft) 100,00 %
23.06.2022 07:20 17,7 C 18,3 C 14,4 C 79 % 1011,9 hPa 0,0 l/m 0 min 0 min 44 W/m 3,2 km/h (1 Bft) 100,00 %
23.06.2022 07:22 17,8 C 18,3 C 15,0 C 79 % 1011,9 hPa 0,0 l/m 0 min 0 min 46 W/m 3,2 km/h (1 Bft) 100,00 %
23.06.2022 07:24 17,9 C 18,3 C 15,0 C 79 % 1012,0 hPa 0,0 l/m 0 min 0 min 47 W/m 3,2 km/h (1 Bft) 100,00 %
23.06.2022 07:26 18,0 C 18,9 C 15,0 C 79 % 1011,9 hPa 0,0 l/m 0 min 0 min 47 W/m 3,2 km/h (1 Bft) 100,00 %
23.06.2022 07:28 18,1 C 18,9 C 15,0 C 78 % 1011,9 hPa 0,0 l/m 0 min 0 min 49 W/m 6,4 km/h (2 Bft) 85,11 %
23.06.2022 07:30 18,2 C 18,9 C 15,0 C 78 % 1011,9 hPa 0,0 l/m 0 min 0 min 49 W/m 6,4 km/h (2 Bft) 63,41 %
23.06.2022 07:32 18,3 C 18,9 C 15,6 C 77 % 1011,9 hPa 0,0 l/m 0 min 0 min 51 W/m 12,9 km/h (3 Bft) 100,00 %
23.06.2022 07:34 18,5 C 18,9 C 15,6 C 77 % 1011,9 hPa 0,0 l/m 0 min 0 min 52 W/m 12,9 km/h (3 Bft) 100,00 %
23.06.2022 07:36 18,7 C 18,9 C 15,6 C 76 % 1011,8 hPa 0,0 l/m 0 min 0 min 53 W/m 6,4 km/h (2 Bft) 100,00 %
23.06.2022 07:38 18,8 C 19,4 C 15,6 C 75 % 1011,8 hPa 0,0 l/m 0 min 0 min 76 W/m 6,4 km/h (2 Bft) 100,00 %
23.06.2022 07:40 18,9 C 19,4 C 15,6 C 75 % 1011,8 hPa 0,0 l/m 2 min 0 min 174 W/m 3,2 km/h (1 Bft) 100,00 %
23.06.2022 07:42 19,0 C 19,4 C 15,6 C 75 % 1011,8 hPa 0,0 l/m 2 min 0 min 234 W/m 6,4 km/h (2 Bft) 100,00 %
23.06.2022 07:44 19,1 C 19,4 C 16,1 C 75 % 1011,8 hPa 0,0 l/m 2 min 0 min 241 W/m 9,7 km/h (2 Bft) 100,00 %
23.06.2022 07:46 19,2 C 19,4 C 16,1 C 74 % 1011,8 hPa 0,0 l/m 2 min 0 min 247 W/m 3,2 km/h (1 Bft) 97,87 %
23.06.2022 07:48 19,3 C 20,0 C 16,1 C 74 % 1011,8 hPa 0,0 l/m 2 min 0 min 253 W/m 3,2 km/h (1 Bft) 100,00 %
23.06.2022 07:50 19,4 C 20,0 C 16,1 C 74 % 1011,8 hPa 0,0 l/m 2 min 0 min 258 W/m 6,4 km/h (2 Bft) 97,87 %
23.06.2022 07:52 19,6 C 20,0 C 16,1 C 74 % 1011,8 hPa 0,0 l/m 2 min 0 min 262 W/m 3,2 km/h (1 Bft) 97,87 %
23.06.2022 07:54 19,7 C 20,0 C 16,1 C 74 % 1011,8 hPa 0,0 l/m 2 min 0 min 269 W/m 6,4 km/h (2 Bft) 100,00 %
23.06.2022 07:56 19,8 C 20,0 C 16,1 C 74 % 1011,9 hPa 0,0 l/m 2 min 0 min 275 W/m 12,9 km/h (3 Bft) 100,00 %
23.06.2022 07:58 20,0 C 20,6 C 16,1 C 73 % 1011,9 hPa 0,0 l/m 2 min 0 min 279 W/m 6,4 km/h (2 Bft) 100,00 %
23.06.2022 08:00 20,2 C 20,6 C 16,7 C 73 % 1011,9 hPa 0,0 l/m 2 min 0 min 284 W/m 6,4 km/h (2 Bft) 100,00 %
23.06.2022 08:02 20,3 C 20,6 C 16,7 C 72 % 1011,9 hPa 0,0 l/m 2 min 0 min 288 W/m 6,4 km/h (2 Bft) 97,87 %
23.06.2022 08:04 20,6 C 20,6 C 16,7 C 72 % 1012,0 hPa 0,0 l/m 2 min 0 min 292 W/m 9,7 km/h (2 Bft) 100,00 %
23.06.2022 08:06 20,7 C 20,6 C 16,7 C 72 % 1011,9 hPa 0,0 l/m 2 min 0 min 296 W/m 6,4 km/h (2 Bft) 97,87 %
23.06.2022 08:08 20,8 C 21,1 C 16,7 C 71 % 1011,9 hPa 0,0 l/m 2 min 0 min 302 W/m 6,4 km/h (2 Bft) 97,83 %
23.06.2022 08:10 21,1 C 21,1 C 16,7 C 71 % 1011,9 hPa 0,0 l/m 2 min 0 min 310 W/m 6,4 km/h (2 Bft) 95,74 %
23.06.2022 08:12 21,2 C 21,7 C 17,2 C 71 % 1012,0 hPa 0,0 l/m 2 min 0 min 316 W/m 9,7 km/h (2 Bft) 95,74 %
23.06.2022 08:14 21,3 C 22,2 C 17,2 C 71 % 1012,0 hPa 0,0 l/m 2 min 0 min 321 W/m 12,9 km/h (3 Bft) 95,74 %
23.06.2022 08:16 21,5 C 22,2 C 17,2 C 70 % 1012,0 hPa 0,0 l/m 2 min 0 min 327 W/m 19,3 km/h (3 Bft) 95,74 %
23.06.2022 08:18 21,6 C 22,8 C 17,2 C 70 % 1011,9 hPa 0,0 l/m 2 min 0 min 334 W/m 12,9 km/h (3 Bft) 95,74 %
23.06.2022 08:20 21,8 C 22,8 C 17,8 C 70 % 1011,9 hPa 0,0 l/m 2 min 0 min 341 W/m 12,9 km/h (3 Bft) 95,65 %
23.06.2022 08:22 21,9 C 22,8 C 17,8 C 69 % 1011,9 hPa 0,0 l/m 2 min 0 min 347 W/m 12,9 km/h (3 Bft) 95,74 %
23.06.2022 08:24 22,1 C 22,8 C 18,3 C 69 % 1011,9 hPa 0,0 l/m 2 min 0 min 354 W/m 6,4 km/h (2 Bft) 95,74 %
23.06.2022 08:26 22,2 C 22,8 C 18,3 C 69 % 1011,9 hPa 0,0 l/m 2 min 0 min 359 W/m 12,9 km/h (3 Bft) 95,74 %
23.06.2022 08:28 22,3 C 23,3 C 18,9 C 69 % 1011,9 hPa 0,0 l/m 2 min 0 min 364 W/m 12,9 km/h (3 Bft) 95,74 %
23.06.2022 08:30 22,4 C 23,3 C 18,9 C 69 % 1011,9 hPa 0,0 l/m 2 min 0 min 363 W/m 9,7 km/h (2 Bft) 89,36 %
23.06.2022 08:32 22,6 C 23,9 C 18,9 C 69 % 1011,9 hPa 0,0 l/m 2 min 0 min 377 W/m 12,9 km/h (3 Bft) 95,65 %
23.06.2022 08:34 22,6 C 23,9 C 19,4 C 68 % 1011,9 hPa 0,0 l/m 2 min 0 min 383 W/m 16,1 km/h (3 Bft) 97,87 %
23.06.2022 08:36 22,7 C 23,9 C 19,4 C 69 % 1011,9 hPa 0,0 l/m 2 min 0 min 389 W/m 22,5 km/h (4 Bft) 93,62 %
23.06.2022 08:38 22,8 C 23,9 C 19,4 C 68 % 1011,9 hPa 0,0 l/m 2 min 0 min 396 W/m 16,1 km/h (3 Bft) 93,62 %
23.06.2022 08:40 22,8 C 23,9 C 20,0 C 68 % 1011,9 hPa 0,0 l/m 2 min 0 min 402 W/m 12,9 km/h (3 Bft) 93,62 %
23.06.2022 08:42 22,9 C 24,4 C 20,0 C 68 % 1011,9 hPa 0,0 l/m 2 min 0 min 408 W/m 16,1 km/h (3 Bft) 93,62 %
23.06.2022 08:44 23,1 C 24,4 C 20,0 C 68 % 1011,9 hPa 0,0 l/m 2 min 0 min 413 W/m 12,9 km/h (3 Bft) 91,30 %
23.06.2022 08:46 23,1 C 24,4 C 20,0 C 68 % 1011,9 hPa 0,0 l/m 2 min 0 min 401 W/m 12,9 km/h (3 Bft) 93,62 %
23.06.2022 08:48 23,2 C 24,4 C 20,0 C 68 % 1012,0 hPa 0,0 l/m 2 min 0 min 400 W/m 12,9 km/h (3 Bft) 95,74 %
23.06.2022 08:50 23,3 C 25,0 C 20,6 C 68 % 1012,0 hPa 0,0 l/m 2 min 0 min 423 W/m 6,4 km/h (2 Bft) 95,74 %
23.06.2022 08:52 23,3 C 25,0 C 20,6 C 67 % 1012,0 hPa 0,0 l/m 2 min 0 min 438 W/m 16,1 km/h (3 Bft) 97,87 %
23.06.2022 08:54 23,4 C 25,0 C 20,6 C 67 % 1011,9 hPa 0,0 l/m 2 min 0 min 443 W/m 16,1 km/h (3 Bft) 95,74 %
23.06.2022 08:56 23,4 C 25,0 C 20,6 C 67 % 1011,9 hPa 0,0 l/m 2 min 0 min 449 W/m 19,3 km/h (3 Bft) 97,83 %
23.06.2022 08:58 23,6 C 25,6 C 21,1 C 68 % 1011,9 hPa 0,0 l/m 2 min 0 min 454 W/m 6,4 km/h (2 Bft) 97,87 %
23.06.2022 09:00 23,7 C 26,1 C 21,1 C 68 % 1011,9 hPa 0,0 l/m 2 min 0 min 459 W/m 9,7 km/h (2 Bft) 97,87 %
23.06.2022 09:02 23,8 C 26,7 C 21,7 C 68 % 1011,9 hPa 0,0 l/m 2 min 0 min 463 W/m 12,9 km/h (3 Bft) 97,87 %
23.06.2022 09:04 23,9 C 27,2 C 21,7 C 67 % 1011,9 hPa 0,0 l/m 2 min 0 min 469 W/m 12,9 km/h (3 Bft) 97,87 %
23.06.2022 09:06 24,1 C 27,2 C 21,7 C 67 % 1011,9 hPa 0,0 l/m 2 min 0 min 476 W/m 12,9 km/h (3 Bft) 95,74 %
23.06.2022 09:08 24,2 C 27,2 C 22,2 C 67 % 1011,8 hPa 0,0 l/m 2 min 0 min 480 W/m 16,1 km/h (3 Bft) 97,83 %
23.06.2022 09:10 24,2 C 27,2 C 22,2 C 67 % 1011,9 hPa 0,0 l/m 2 min 0 min 485 W/m 6,4 km/h (2 Bft) 97,87 %
23.06.2022 09:12 24,3 C 27,2 C 22,2 C 67 % 1011,8 hPa 0,0 l/m 2 min 0 min 492 W/m 9,7 km/h (2 Bft) 97,87 %
23.06.2022 09:14 24,4 C 27,2 C 21,7 C 67 % 1011,9 hPa 0,0 l/m 2 min 0 min 497 W/m 12,9 km/h (3 Bft) 97,87 %
23.06.2022 09:16 24,4 C 27,8 C 22,2 C 67 % 1011,9 hPa 0,0 l/m 2 min 0 min 500 W/m 16,1 km/h (3 Bft) 97,87 %
23.06.2022 09:18 24,6 C 27,8 C 22,2 C 67 % 1011,9 hPa 0,0 l/m 2 min 0 min 505 W/m 12,9 km/h (3 Bft) 95,74 %
23.06.2022 09:20 24,7 C 28,3 C 22,2 C 67 % 1011,9 hPa 0,0 l/m 2 min 0 min 511 W/m 16,1 km/h (3 Bft) 97,87 %
23.06.2022 09:22 24,7 C 28,9 C 22,8 C 67 % 1011,9 hPa 0,0 l/m 2 min 0 min 517 W/m 9,7 km/h (2 Bft) 97,83 %
23.06.2022 09:24 24,8 C 29,4 C 22,8 C 67 % 1011,9 hPa 0,0 l/m 2 min 0 min 524 W/m 16,1 km/h (3 Bft) 97,87 %
23.06.2022 09:26 24,9 C 29,4 C 22,8 C 66 % 1011,9 hPa 0,0 l/m 2 min 0 min 531 W/m 16,1 km/h (3 Bft) 97,87 %
23.06.2022 09:28 25,0 C 29,4 C 22,8 C 66 % 1011,9 hPa 0,0 l/m 2 min 0 min 536 W/m 16,1 km/h (3 Bft) 97,87 %
23.06.2022 09:30 25,1 C 29,4 C 23,3 C 66 % 1011,9 hPa 0,0 l/m 2 min 0 min 543 W/m 9,7 km/h (2 Bft) 97,87 %
23.06.2022 09:32 25,2 C 30,0 C 23,3 C 66 % 1011,8 hPa 0,0 l/m 2 min 0 min 549 W/m 12,9 km/h (3 Bft) 97,83 %
23.06.2022 09:34 25,2 C 30,0 C 23,9 C 66 % 1011,8 hPa 0,0 l/m 2 min 0 min 553 W/m 9,7 km/h (2 Bft) 97,87 %
23.06.2022 09:36 25,3 C 28,9 C 23,9 C 66 % 1011,8 hPa 0,0 l/m 2 min 0 min 559 W/m 19,3 km/h (3 Bft) 97,87 %
23.06.2022 09:38 25,3 C 29,4 C 23,9 C 65 % 1011,8 hPa 0,0 l/m 2 min 0 min 564 W/m 12,9 km/h (3 Bft) 97,87 %
23.06.2022 09:40 25,4 C 29,4 C 24,4 C 65 % 1011,8 hPa 0,0 l/m 2 min 0 min 570 W/m 16,1 km/h (3 Bft) 100,00 %
23.06.2022 09:42 25,4 C 29,4 C 24,4 C 65 % 1011,8 hPa 0,0 l/m 2 min 0 min 573 W/m 16,1 km/h (3 Bft) 100,00 %
23.06.2022 09:44 25,5 C 28,9 C 24,4 C 65 % 1011,7 hPa 0,0 l/m 2 min 0 min 580 W/m 12,9 km/h (3 Bft) 100,00 %
23.06.2022 09:46 25,6 C 28,9 C 24,4 C 65 % 1011,7 hPa 0,0 l/m 2 min 0 min 585 W/m 16,1 km/h (3 Bft) 100,00 %
23.06.2022 09:48 25,7 C 29,4 C 25,0 C 65 % 1011,7 hPa 0,0 l/m 2 min 0 min 589 W/m 16,1 km/h (3 Bft) 100,00 %
23.06.2022 09:50 25,8 C 29,4 C 25,0 C 65 % 1011,7 hPa 0,0 l/m 2 min 0 min 595 W/m 12,9 km/h (3 Bft) 100,00 %
23.06.2022 09:52 25,9 C 29,4 C 25,0 C 65 % 1011,6 hPa 0,0 l/m 2 min 0 min 598 W/m 12,9 km/h (3 Bft) 97,87 %
23.06.2022 09:54 26,0 C 29,4 C 25,0 C 64 % 1011,6 hPa 0,0 l/m 2 min 0 min 604 W/m 12,9 km/h (3 Bft) 100,00 %
23.06.2022 09:56 26,1 C 29,4 C 25,0 C 64 % 1011,6 hPa 0,0 l/m 2 min 0 min 608 W/m 6,4 km/h (2 Bft) 100,00 %
23.06.2022 09:58 26,2 C 29,4 C 25,6 C 64 % 1011,7 hPa 0,0 l/m 2 min 0 min 613 W/m 12,9 km/h (3 Bft) 100,00 %
23.06.2022 10:00 26,3 C 29,4 C 25,6 C 64 % 1011,7 hPa 0,0 l/m 2 min 0 min 618 W/m 19,3 km/h (3 Bft) 100,00 %
23.06.2022 10:02 26,3 C 28,9 C 25,6 C 63 % 1011,7 hPa 0,0 l/m 2 min 0 min 621 W/m 19,3 km/h (3 Bft) 100,00 %
23.06.2022 10:04 26,3 C 28,3 C 25,6 C 63 % 1011,6 hPa 0,0 l/m 2 min 0 min 625 W/m 12,9 km/h (3 Bft) 100,00 %
23.06.2022 10:06 26,4 C 28,3 C 25,6 C 63 % 1011,7 hPa 0,0 l/m 2 min 0 min 630 W/m 16,1 km/h (3 Bft) 100,00 %
23.06.2022 10:08 26,5 C 28,9 C 26,1 C 63 % 1011,7 hPa 0,0 l/m 2 min 0 min 635 W/m 12,9 km/h (3 Bft) 100,00 %
23.06.2022 10:10 26,6 C 28,9 C 26,1 C 62 % 1011,7 hPa 0,0 l/m 2 min 0 min 639 W/m 12,9 km/h (3 Bft) 100,00 %
23.06.2022 10:12 26,6 C 28,9 C 26,1 C 62 % 1011,6 hPa 0,0 l/m 2 min 0 min 642 W/m 12,9 km/h (3 Bft) 97,87 %
23.06.2022 10:14 26,7 C 28,9 C 26,1 C 62 % 1011,6 hPa 0,0 l/m 2 min 0 min 648 W/m 25,7 km/h (4 Bft) 100,00 %
23.06.2022 10:16 26,7 C 28,3 C 26,1 C 62 % 1011,6 hPa 0,0 l/m 2 min 0 min 654 W/m 16,1 km/h (3 Bft) 97,87 %
23.06.2022 10:18 26,8 C 28,9 C 26,7 C 62 % 1011,7 hPa 0,0 l/m 2 min 0 min 659 W/m 12,9 km/h (3 Bft) 97,87 %
23.06.2022 10:20 26,9 C 28,9 C 26,7 C 62 % 1011,6 hPa 0,0 l/m 2 min 0 min 664 W/m 12,9 km/h (3 Bft) 97,83 %
23.06.2022 10:22 26,9 C 28,3 C 26,7 C 62 % 1011,7 hPa 0,0 l/m 2 min 0 min 668 W/m 16,1 km/h (3 Bft) 97,87 %
23.06.2022 10:24 27,0 C 27,8 C 26,7 C 62 % 1011,7 hPa 0,0 l/m 2 min 0 min 675 W/m 22,5 km/h (4 Bft) 97,87 %
23.06.2022 10:26 27,1 C 27,8 C 26,7 C 62 % 1011,7 hPa 0,0 l/m 2 min 0 min 679 W/m 16,1 km/h (3 Bft) 95,74 %
23.06.2022 10:28 27,1 C 27,8 C 27,2 C 61 % 1011,7 hPa 0,0 l/m 2 min 0 min 683 W/m 16,1 km/h (3 Bft) 95,74 %
23.06.2022 10:30 27,1 C 27,8 C 27,2 C 61 % 1011,6 hPa 0,0 l/m 2 min 0 min 686 W/m 19,3 km/h (3 Bft) 97,87 %
23.06.2022 10:32 27,2 C 28,3 C 27,8 C 61 % 1011,7 hPa 0,0 l/m 2 min 0 min 691 W/m 12,9 km/h (3 Bft) 97,83 %
23.06.2022 10:34 27,3 C 28,3 C 27,8 C 61 % 1011,6 hPa 0,0 l/m 2 min 0 min 696 W/m 19,3 km/h (3 Bft) 98,00 %
23.06.2022 10:36 27,4 C 28,3 C 27,8 C 61 % 1011,8 hPa 0,0 l/m 2 min 0 min 699 W/m 12,9 km/h (3 Bft) 95,74 %
23.06.2022 10:38 27,5 C 28,9 C 28,3 C 62 % 1011,7 hPa 0,0 l/m 2 min 0 min 704 W/m 12,9 km/h (3 Bft) 95,74 %
23.06.2022 10:40 27,6 C 27,8 C 27,8 C 60 % 1011,7 hPa 0,0 l/m 2 min 0 min 708 W/m 16,1 km/h (3 Bft) 93,48 %
23.06.2022 10:42 27,6 C 27,8 C 27,8 C 60 % 1011,7 hPa 0,0 l/m 2 min 0 min 712 W/m 12,9 km/h (3 Bft) 95,74 %
23.06.2022 10:44 27,6 C 27,8 C 27,8 C 60 % 1011,8 hPa 0,0 l/m 2 min 0 min 715 W/m 12,9 km/h (3 Bft) 95,74 %
23.06.2022 10:46 27,6 C 27,8 C 27,8 C 59 % 1011,8 hPa 0,0 l/m 2 min 0 min 720 W/m 16,1 km/h (3 Bft) 95,74 %
23.06.2022 10:48 27,6 C 27,8 C 27,8 C 59 % 1011,8 hPa 0,0 l/m 2 min 0 min 726 W/m 16,1 km/h (3 Bft) 93,62 %
23.06.2022 10:50 27,7 C 27,8 C 27,8 C 59 % 1011,7 hPa 0,0 l/m 2 min 0 min 729 W/m 22,5 km/h (4 Bft) 95,74 %
23.06.2022 10:52 27,7 C 27,8 C 27,8 C 60 % 1011,8 hPa 0,0 l/m 2 min 0 min 732 W/m 19,3 km/h (3 Bft) 97,83 %
23.06.2022 10:54 27,8 C 28,3 C 28,3 C 60 % 1011,7 hPa 0,0 l/m 2 min 0 min 736 W/m 9,7 km/h (2 Bft) 97,87 %
23.06.2022 10:56 27,8 C 28,9 C 27,8 C 59 % 1011,7 hPa 0,0 l/m 2 min 0 min 739 W/m 19,3 km/h (3 Bft) 95,74 %
23.06.2022 10:58 27,9 C 28,9 C 27,8 C 59 % 1011,7 hPa 0,0 l/m 2 min 0 min 741 W/m 12,9 km/h (3 Bft) 95,74 %
23.06.2022 11:00 27,9 C 28,9 C 27,2 C 59 % 1011,7 hPa 0,0 l/m 2 min 0 min 748 W/m 22,5 km/h (4 Bft) 97,87 %
23.06.2022 11:02 28,0 C 28,9 C 26,1 C 58 % 1011,7 hPa 0,0 l/m 2 min 0 min 752 W/m 16,1 km/h (3 Bft) 97,87 %
23.06.2022 11:04 28,0 C 28,9 C 25,6 C 58 % 1011,6 hPa 0,0 l/m 2 min 0 min 753 W/m 22,5 km/h (4 Bft) 95,65 %
23.06.2022 11:06 28,1 C 28,9 C 25,0 C 59 % 1011,6 hPa 0,0 l/m 2 min 0 min 761 W/m 25,7 km/h (4 Bft) 95,74 %
23.06.2022 11:08 28,1 C 28,9 C 25,0 C 58 % 1011,6 hPa 0,0 l/m 2 min 0 min 759 W/m 19,3 km/h (3 Bft) 95,74 %
23.06.2022 11:10 28,1 C 29,4 C 25,0 C 58 % 1011,7 hPa 0,0 l/m 2 min 0 min 767 W/m 19,3 km/h (3 Bft) 97,87 %
23.06.2022 11:12 28,2 C 29,4 C 25,0 C 58 % 1011,6 hPa 0,0 l/m 2 min 0 min 770 W/m 12,9 km/h (3 Bft) 97,87 %
23.06.2022 11:14 28,2 C 29,4 C 25,0 C 59 % 1011,6 hPa 0,0 l/m 2 min 0 min 774 W/m 12,9 km/h (3 Bft) 97,87 %
23.06.2022 11:16 28,3 C 29,4 C 24,4 C 58 % 1011,5 hPa 0,0 l/m 2 min 0 min 774 W/m 19,3 km/h (3 Bft) 95,65 %
23.06.2022 11:18 28,3 C 29,4 C 24,4 C 58 % 1011,5 hPa 0,0 l/m 2 min 0 min 781 W/m 12,9 km/h (3 Bft) 97,87 %
23.06.2022 11:20 28,3 C 29,4 C 24,4 C 57 % 1011,5 hPa 0,0 l/m 2 min 0 min 785 W/m 25,7 km/h (4 Bft) 97,87 %
23.06.2022 11:22 28,4 C 29,4 C 25,0 C 57 % 1011,6 hPa 0,0 l/m 2 min 0 min 787 W/m 16,1 km/h (3 Bft) 97,87 %
23.06.2022 11:24 28,4 C 28,9 C 24,4 C 57 % 1011,5 hPa 0,0 l/m 2 min 0 min 790 W/m 19,3 km/h (3 Bft) 100,00 %
23.06.2022 11:26 28,4 C 28,9 C 24,4 C 57 % 1011,5 hPa 0,0 l/m 2 min 0 min 796 W/m 29,0 km/h (5 Bft) 100,00 %
23.06.2022 11:28 28,4 C 29,4 C 25,0 C 56 % 1011,5 hPa 0,0 l/m 2 min 0 min 799 W/m 19,3 km/h (3 Bft) 100,00 %
23.06.2022 11:30 28,5 C 29,4 C 25,0 C 58 % 1011,4 hPa 0,0 l/m 2 min 0 min 804 W/m 19,3 km/h (3 Bft) 100,00 %
23.06.2022 11:32 28,6 C 30,0 C 25,6 C 57 % 1011,4 hPa 0,0 l/m 2 min 0 min 806 W/m 16,1 km/h (3 Bft) 100,00 %
23.06.2022 11:34 28,7 C 30,0 C 25,0 C 56 % 1011,4 hPa 0,0 l/m 2 min 0 min 810 W/m 19,3 km/h (3 Bft) 97,87 %
23.06.2022 11:36 28,7 C 30,0 C 25,0 C 57 % 1011,4 hPa 0,0 l/m 2 min 0 min 813 W/m 16,1 km/h (3 Bft) 97,87 %
23.06.2022 11:38 28,8 C 30,6 C 25,6 C 57 % 1011,4 hPa 0,0 l/m 2 min 0 min 817 W/m 16,1 km/h (3 Bft) 100,00 %
23.06.2022 11:40 28,8 C 30,6 C 25,6 C 56 % 1011,4 hPa 0,0 l/m 2 min 0 min 823 W/m 16,1 km/h (3 Bft) 100,00 %
23.06.2022 11:42 28,9 C 30,6 C 26,7 C 55 % 1011,4 hPa 0,0 l/m 2 min 0 min 825 W/m 16,1 km/h (3 Bft) 100,00 %
23.06.2022 11:44 29,0 C 30,6 C 27,2 C 56 % 1011,3 hPa 0,0 l/m 2 min 0 min 836 W/m 19,3 km/h (3 Bft) 97,87 %
23.06.2022 11:46 29,1 C 30,0 C 28,3 C 55 % 1011,3 hPa 0,0 l/m 2 min 0 min 838 W/m 19,3 km/h (3 Bft) 100,00 %
23.06.2022 11:48 29,1 C 30,0 C 28,9 C 55 % 1011,3 hPa 0,0 l/m 2 min 0 min 844 W/m 16,1 km/h (3 Bft) 97,87 %
23.06.2022 11:50 29,2 C 30,0 C 28,9 C 54 % 1011,3 hPa 0,0 l/m 2 min 0 min 844 W/m 22,5 km/h (4 Bft) 97,87 %
23.06.2022 11:52 29,2 C 30,0 C 28,9 C 54 % 1011,2 hPa 0,0 l/m 2 min 0 min 843 W/m 22,5 km/h (4 Bft) 97,83 %
23.06.2022 11:54 29,3 C 30,0 C 28,9 C 54 % 1011,2 hPa 0,0 l/m 2 min 0 min 838 W/m 22,5 km/h (4 Bft) 97,87 %
23.06.2022 11:56 29,3 C 30,0 C 28,3 C 55 % 1011,2 hPa 0,0 l/m 2 min 0 min 841 W/m 16,1 km/h (3 Bft) 97,87 %
23.06.2022 11:58 29,4 C 30,6 C 28,3 C 55 % 1011,2 hPa 0,0 l/m 2 min 0 min 845 W/m 12,9 km/h (3 Bft) 97,87 %
23.06.2022 12:00 29,5 C 30,6 C 27,8 C 53 % 1011,1 hPa 0,0 l/m 2 min 0 min 845 W/m 19,3 km/h (3 Bft) 97,87 %
23.06.2022 12:02 29,6 C 30,6 C 27,8 C 53 % 1011,2 hPa 0,0 l/m 2 min 0 min 850 W/m 16,1 km/h (3 Bft) 93,62 %
23.06.2022 12:04 29,6 C 30,6 C 27,2 C 53 % 1011,1 hPa 0,0 l/m 2 min 0 min 850 W/m 19,3 km/h (3 Bft) 95,65 %
23.06.2022 12:08 29,7 C 30,6 C 27,2 C 51 % 1011,3 hPa 0,0 l/m 4 min 0 min 861 W/m 29,0 km/h (5 Bft) 98,78 %
23.06.2022 12:10 29,8 C 30,6 C 27,2 C 52 % 1011,2 hPa 0,0 l/m 2 min 0 min 860 W/m 19,3 km/h (3 Bft) 95,74 %
23.06.2022 12:12 29,8 C 30,0 C 27,8 C 51 % 1011,2 hPa 0,0 l/m 2 min 0 min 865 W/m 19,3 km/h (3 Bft) 95,74 %
23.06.2022 12:14 29,8 C 30,0 C 27,8 C 52 % 1011,4 hPa 0,0 l/m 2 min 0 min 867 W/m 22,5 km/h (4 Bft) 95,74 %
23.06.2022 12:16 29,8 C 30,0 C 28,3 C 51 % 1011,2 hPa 0,0 l/m 2 min 0 min 872 W/m 19,3 km/h (3 Bft) 93,62 %
23.06.2022 12:18 29,8 C 30,0 C 28,9 C 51 % 1011,2 hPa 0,0 l/m 2 min 0 min 871 W/m 22,5 km/h (4 Bft) 96,23 %
23.06.2022 12:20 29,8 C 30,6 C 29,4 C 52 % 1011,1 hPa 0,0 l/m 2 min 0 min 873 W/m 12,9 km/h (3 Bft) 97,83 %
23.06.2022 12:22 29,9 C 31,1 C 30,6 C 52 % 1011,1 hPa 0,0 l/m 2 min 0 min 874 W/m 16,1 km/h (3 Bft) 95,74 %
23.06.2022 12:24 30,1 C 30,6 C 30,6 C 51 % 1011,2 hPa 0,0 l/m 2 min 0 min 875 W/m 25,7 km/h (4 Bft) 95,74 %
23.06.2022 12:26 30,1 C 30,6 C 31,1 C 52 % 1011,2 hPa 0,0 l/m 2 min 0 min 874 W/m 9,7 km/h (2 Bft) 95,74 %
23.06.2022 12:28 30,1 C 30,6 C 32,2 C 51 % 1011,2 hPa 0,0 l/m 2 min 0 min 877 W/m 19,3 km/h (3 Bft) 95,74 %
23.06.2022 12:31 30,2 C 30,6 C 31,7 C 51 % 1011,1 hPa 0,0 l/m 3 min 0 min 879 W/m 16,1 km/h (3 Bft) 97,14 %
23.06.2022 12:32 30,2 C 30,6 C 31,7 C 51 % 1011,2 hPa 0,0 l/m 1 min 0 min 883 W/m 16,1 km/h (3 Bft) 100,00 %
23.06.2022 12:34 30,2 C 30,6 C 32,2 C 50 % 1011,2 hPa 0,0 l/m 2 min 0 min 886 W/m 16,1 km/h (3 Bft) 97,87 %
23.06.2022 12:36 30,3 C 30,6 C 32,2 C 51 % 1011,1 hPa 0,0 l/m 2 min 0 min 882 W/m 19,3 km/h (3 Bft) 97,87 %
23.06.2022 12:38 30,3 C 31,1 C 32,8 C 51 % 1011,1 hPa 0,0 l/m 2 min 0 min 886 W/m 9,7 km/h (2 Bft) 97,87 %
23.06.2022 12:40 30,4 C 31,1 C 32,2 C 52 % 1011,0 hPa 0,0 l/m 2 min 0 min 892 W/m 16,1 km/h (3 Bft) 97,87 %
23.06.2022 12:42 30,5 C 31,1 C 32,8 C 51 % 1011,0 hPa 0,0 l/m 2 min 0 min 891 W/m 12,9 km/h (3 Bft) 97,87 %
23.06.2022 12:44 30,6 C 31,1 C 33,3 C 51 % 1011,0 hPa 0,0 l/m 2 min 0 min 890 W/m 12,9 km/h (3 Bft) 100,00 %
23.06.2022 12:46 30,6 C 31,1 C 33,3 C 51 % 1010,9 hPa 0,0 l/m 2 min 0 min 892 W/m 16,1 km/h (3 Bft) 100,00 %
23.06.2022 12:48 30,7 C 31,1 C 32,8 C 51 % 1010,9 hPa 0,0 l/m 2 min 0 min 893 W/m 12,9 km/h (3 Bft) 100,00 %
23.06.2022 12:50 30,7 C 31,1 C 33,3 C 50 % 1010,9 hPa 0,0 l/m 2 min 0 min 897 W/m 12,9 km/h (3 Bft) 100,00 %
23.06.2022 12:52 30,8 C 31,1 C 33,3 C 51 % 1011,0 hPa 0,0 l/m 2 min 0 min 897 W/m 22,5 km/h (4 Bft) 100,00 %
23.06.2022 12:54 30,8 C 31,1 C 33,3 C 51 % 1010,9 hPa 0,0 l/m 2 min 0 min 897 W/m 12,9 km/h (3 Bft) 100,00 %
23.06.2022 12:56 30,9 C 31,1 C 33,3 C 50 % 1010,8 hPa 0,0 l/m 2 min 0 min 901 W/m 16,1 km/h (3 Bft) 100,00 %
23.06.2022 12:58 30,9 C 31,1 C 32,8 C 50 % 1010,8 hPa 0,0 l/m 2 min 0 min 901 W/m 25,7 km/h (4 Bft) 100,00 %
23.06.2022 13:00 30,9 C 31,1 C 32,8 C 50 % 1010,8 hPa 0,0 l/m 2 min 0 min 904 W/m 19,3 km/h (3 Bft) 100,00 %
23.06.2022 13:02 30,9 C 31,1 C 32,8 C 50 % 1010,8 hPa 0,0 l/m 2 min 0 min 905 W/m 12,9 km/h (3 Bft) 100,00 %
23.06.2022 13:04 31,0 C 31,1 C 33,3 C 51 % 1010,8 hPa 0,0 l/m 2 min 0 min 905 W/m 12,9 km/h (3 Bft) 100,00 %
23.06.2022 13:06 31,1 C 31,1 C 32,8 C 50 % 1010,8 hPa 0,0 l/m 2 min 0 min 908 W/m 19,3 km/h (3 Bft) 100,00 %
23.06.2022 13:08 31,1 C 31,1 C 32,8 C 50 % 1010,8 hPa 0,0 l/m 2 min 0 min 908 W/m 12,9 km/h (3 Bft) 100,00 %
23.06.2022 13:10 31,1 C 31,1 C 32,8 C 50 % 1010,7 hPa 0,0 l/m 2 min 0 min 908 W/m 12,9 km/h (3 Bft) 100,00 %
23.06.2022 13:12 31,1 C 31,7 C 32,8 C 50 % 1010,7 hPa 0,0 l/m 2 min 0 min 908 W/m 6,4 km/h (2 Bft) 100,00 %
23.06.2022 13:14 31,2 C 31,7 C 32,8 C 50 % 1010,7 hPa 0,0 l/m 2 min 0 min 914 W/m 12,9 km/h (3 Bft) 100,00 %
23.06.2022 13:16 31,3 C 31,7 C 32,8 C 50 % 1010,8 hPa 0,0 l/m 2 min 0 min 913 W/m 19,3 km/h (3 Bft) 100,00 %
23.06.2022 13:18 31,3 C 31,7 C 32,8 C 50 % 1010,8 hPa 0,0 l/m 2 min 0 min 914 W/m 16,1 km/h (3 Bft) 97,83 %
23.06.2022 13:20 31,4 C 32,2 C 32,8 C 50 % 1010,8 hPa 0,0 l/m 2 min 0 min 911 W/m 12,9 km/h (3 Bft) 97,87 %
23.06.2022 13:22 31,4 C 32,2 C 32,2 C 50 % 1010,7 hPa 0,0 l/m 2 min 0 min 912 W/m 19,3 km/h (3 Bft) 97,87 %
23.06.2022 13:24 31,5 C 32,2 C 31,7 C 50 % 1010,8 hPa 0,0 l/m 2 min 0 min 912 W/m 16,1 km/h (3 Bft) 97,87 %
23.06.2022 13:26 31,6 C 32,2 C 31,1 C 49 % 1010,7 hPa 0,0 l/m 2 min 0 min 913 W/m 9,7 km/h (2 Bft) 95,74 %
23.06.2022 13:28 31,6 C 32,8 C 31,7 C 49 % 1010,6 hPa 0,0 l/m 2 min 0 min 912 W/m 9,7 km/h (2 Bft) 97,87 %
23.06.2022 13:30 31,6 C 32,8 C 32,2 C 50 % 1010,6 hPa 0,0 l/m 2 min 0 min 918 W/m 19,3 km/h (3 Bft) 97,83 %
23.06.2022 13:32 31,7 C 32,8 C 33,3 C 50 % 1010,6 hPa 0,0 l/m 2 min 0 min 919 W/m 16,1 km/h (3 Bft) 97,87 %
23.06.2022 13:34 31,7 C 32,8 C 33,9 C 49 % 1010,7 hPa 0,0 l/m 2 min 0 min 918 W/m 16,1 km/h (3 Bft) 97,87 %
23.06.2022 13:36 31,6 C 32,2 C 34,4 C 50 % 1010,7 hPa 0,0 l/m 2 min 0 min 920 W/m 19,3 km/h (3 Bft) 95,74 %
23.06.2022 13:38 31,7 C 32,2 C 35,0 C 49 % 1010,6 hPa 0,0 l/m 2 min 0 min 925 W/m 12,9 km/h (3 Bft) 97,87 %
23.06.2022 13:40 31,7 C 32,8 C 35,6 C 49 % 1010,6 hPa 0,0 l/m 2 min 0 min 922 W/m 6,4 km/h (2 Bft) 97,87 %
23.06.2022 13:42 31,8 C 33,3 C 36,1 C 50 % 1010,6 hPa 0,0 l/m 2 min 0 min 920 W/m 12,9 km/h (3 Bft) 97,83 %
23.06.2022 13:44 31,8 C 33,3 C 36,7 C 50 % 1010,6 hPa 0,0 l/m 2 min 0 min 922 W/m 6,4 km/h (2 Bft) 95,74 %
23.06.2022 13:46 31,9 C 33,3 C 36,7 C 50 % 1010,6 hPa 0,0 l/m 2 min 0 min 919 W/m 16,1 km/h (3 Bft) 97,87 %
23.06.2022 13:48 31,9 C 33,3 C 36,7 C 49 % 1010,6 hPa 0,0 l/m 2 min 0 min 922 W/m 12,9 km/h (3 Bft) 97,92 %
23.06.2022 13:50 32,0 C 33,9 C 36,7 C 49 % 1010,5 hPa 0,0 l/m 2 min 0 min 919 W/m 9,7 km/h (2 Bft) 97,92 %
23.06.2022 13:52 32,0 C 33,9 C 35,6 C 49 % 1010,5 hPa 0,0 l/m 2 min 0 min 905 W/m 12,9 km/h (3 Bft) 97,92 %
23.06.2022 13:54 32,1 C 34,4 C 36,1 C 49 % 1010,5 hPa 0,0 l/m 2 min 0 min 911 W/m 12,9 km/h (3 Bft) 97,83 %
23.06.2022 13:56 32,2 C 34,4 C 36,1 C 49 % 1010,5 hPa 0,0 l/m 2 min 0 min 924 W/m 12,9 km/h (3 Bft) 97,87 %
23.06.2022 13:58 32,2 C 33,3 C 34,4 C 49 % 1010,5 hPa 0,0 l/m 2 min 0 min 931 W/m 19,3 km/h (3 Bft) 93,62 %
23.06.2022 14:00 32,1 C 32,8 C 32,8 C 48 % 1010,5 hPa 0,0 l/m 2 min 0 min 929 W/m 12,9 km/h (3 Bft) 95,74 %
23.06.2022 14:02 32,0 C 32,8 C 31,7 C 49 % 1010,4 hPa 0,0 l/m 2 min 0 min 916 W/m 12,9 km/h (3 Bft) 93,62 %
23.06.2022 14:04 32,0 C 32,8 C 31,1 C 48 % 1010,4 hPa 0,0 l/m 2 min 0 min 918 W/m 6,4 km/h (2 Bft) 97,87 %
23.06.2022 14:06 32,1 C 33,3 C 30,6 C 49 % 1010,4 hPa 0,0 l/m 2 min 0 min 921 W/m 9,7 km/h (2 Bft) 97,83 %
23.06.2022 14:08 32,1 C 33,3 C 30,0 C 49 % 1010,4 hPa 0,0 l/m 2 min 0 min 919 W/m 16,1 km/h (3 Bft) 95,74 %
23.06.2022 14:10 32,1 C 33,3 C 29,4 C 48 % 1010,4 hPa 0,0 l/m 2 min 0 min 919 W/m 16,1 km/h (3 Bft) 95,74 %
23.06.2022 14:12 32,1 C 32,8 C 28,9 C 48 % 1010,4 hPa 0,0 l/m 2 min 0 min 916 W/m 16,1 km/h (3 Bft) 95,74 %
23.06.2022 14:14 32,1 C 32,8 C 28,9 C 48 % 1010,3 hPa 0,0 l/m 2 min 0 min 911 W/m 12,9 km/h (3 Bft) 93,62 %
23.06.2022 14:16 32,1 C 32,8 C 28,3 C 48 % 1010,3 hPa 0,0 l/m 2 min 0 min 920 W/m 16,1 km/h (3 Bft) 95,74 %
23.06.2022 14:18 32,0 C 32,8 C 28,3 C 48 % 1010,3 hPa 0,0 l/m 2 min 0 min 923 W/m 16,1 km/h (3 Bft) 91,30 %
23.06.2022 14:20 31,9 C 32,8 C 28,3 C 48 % 1010,3 hPa 0,0 l/m 2 min 0 min 919 W/m 12,9 km/h (3 Bft) 93,62 %
23.06.2022 14:22 32,0 C 33,3 C 28,3 C 49 % 1010,3 hPa 0,0 l/m 2 min 0 min 904 W/m 9,7 km/h (2 Bft) 95,74 %
23.06.2022 14:24 32,1 C 33,9 C 27,8 C 49 % 1010,3 hPa 0,0 l/m 2 min 0 min 909 W/m 12,9 km/h (3 Bft) 95,74 %
23.06.2022 14:26 32,1 C 34,4 C 27,8 C 48 % 1010,2 hPa 0,0 l/m 2 min 0 min 916 W/m 3,2 km/h (1 Bft) 97,56 %
23.06.2022 14:28 32,1 C 34,4 C 27,8 C 48 % 1010,2 hPa 0,0 l/m 2 min 0 min 917 W/m 9,7 km/h (2 Bft) 94,12 %
23.06.2022 14:30 32,2 C 34,4 C 28,3 C 48 % 1010,2 hPa 0,0 l/m 2 min 0 min 915 W/m 16,1 km/h (3 Bft) 95,74 %
23.06.2022 14:32 32,3 C 34,4 C 28,3 C 48 % 1010,2 hPa 0,0 l/m 2 min 0 min 915 W/m 22,5 km/h (4 Bft) 95,74 %
23.06.2022 14:34 32,3 C 34,4 C 28,3 C 48 % 1010,2 hPa 0,0 l/m 2 min 0 min 911 W/m 12,9 km/h (3 Bft) 97,87 %
23.06.2022 14:36 32,4 C 34,4 C 28,3 C 47 % 1010,2 hPa 0,0 l/m 2 min 0 min 909 W/m 16,1 km/h (3 Bft) 95,65 %
23.06.2022 14:38 32,4 C 34,4 C 28,3 C 48 % 1010,2 hPa 0,0 l/m 2 min 0 min 901 W/m 6,4 km/h (2 Bft) 95,74 %
23.06.2022 14:40 32,5 C 34,4 C 28,3 C 47 % 1010,1 hPa 0,0 l/m 2 min 0 min 904 W/m 12,9 km/h (3 Bft) 95,74 %
23.06.2022 14:42 32,5 C 34,4 C 28,3 C 48 % 1010,1 hPa 0,0 l/m 2 min 0 min 907 W/m 19,3 km/h (3 Bft) 97,87 %
23.06.2022 14:44 32,5 C 35,0 C 28,3 C 48 % 1010,1 hPa 0,0 l/m 2 min 0 min 912 W/m 16,1 km/h (3 Bft) 97,87 %
23.06.2022 14:46 32,6 C 35,0 C 28,3 C 47 % 1010,0 hPa 0,0 l/m 2 min 0 min 906 W/m 6,4 km/h (2 Bft) 95,74 %
23.06.2022 14:48 32,7 C 35,0 C 28,3 C 47 % 1010,0 hPa 0,0 l/m 2 min 0 min 902 W/m 9,7 km/h (2 Bft) 95,65 %
23.06.2022 14:50 32,7 C 35,0 C 28,3 C 47 % 1010,0 hPa 0,0 l/m 2 min 0 min 893 W/m 16,1 km/h (3 Bft) 95,74 %
23.06.2022 14:52 32,8 C 35,0 C 28,3 C 46 % 1010,0 hPa 0,0 l/m 2 min 0 min 902 W/m 6,4 km/h (2 Bft) 95,74 %
23.06.2022 14:54 32,8 C 35,0 C 28,3 C 47 % 1010,0 hPa 0,0 l/m 2 min 0 min 910 W/m 9,7 km/h (2 Bft) 100,00 %
23.06.2022 14:56 32,8 C 35,0 C 28,3 C 47 % 1009,9 hPa 0,0 l/m 2 min 0 min 911 W/m 6,4 km/h (2 Bft) 97,87 %
23.06.2022 14:58 32,9 C 35,6 C 28,3 C 47 % 1009,9 hPa 0,0 l/m 2 min 0 min 912 W/m 16,1 km/h (3 Bft) 100,00 %
23.06.2022 15:00 32,9 C 35,0 C 28,3 C 46 % 1009,9 hPa 0,0 l/m 2 min 0 min 899 W/m 16,1 km/h (3 Bft) 97,83 %
23.06.2022 15:02 32,9 C 35,0 C 28,3 C 47 % 1009,9 hPa 0,0 l/m 2 min 0 min 894 W/m 12,9 km/h (3 Bft) 100,00 %
23.06.2022 15:04 32,9 C 35,0 C 28,3 C 46 % 1009,9 hPa 0,0 l/m 2 min 0 min 884 W/m 16,1 km/h (3 Bft) 100,00 %
23.06.2022 15:06 33,0 C 35,0 C 28,3 C 46 % 1009,9 hPa 0,0 l/m 2 min 0 min 878 W/m 12,9 km/h (3 Bft) 100,00 %
23.06.2022 15:08 33,0 C 33,9 C 28,3 C 46 % 1009,8 hPa 0,0 l/m 2 min 0 min 864 W/m 12,9 km/h (3 Bft) 100,00 %
23.06.2022 15:10 32,9 C 34,4 C 28,3 C 47 % 1009,8 hPa 0,0 l/m 2 min 0 min 868 W/m 9,7 km/h (2 Bft) 100,00 %
23.06.2022 15:12 33,0 C 35,0 C 28,3 C 46 % 1009,7 hPa 0,0 l/m 2 min 0 min 876 W/m 6,4 km/h (2 Bft) 100,00 %
23.06.2022 15:14 33,1 C 35,0 C 28,3 C 47 % 1009,7 hPa 0,0 l/m 2 min 0 min 872 W/m 12,9 km/h (3 Bft) 100,00 %
23.06.2022 15:16 33,1 C 35,0 C 28,3 C 46 % 1009,8 hPa 0,0 l/m 2 min 0 min 871 W/m 12,9 km/h (3 Bft) 100,00 %
23.06.2022 15:18 33,1 C 35,0 C 28,3 C 46 % 1009,7 hPa 0,0 l/m 2 min 0 min 872 W/m 6,4 km/h (2 Bft) 97,87 %
23.06.2022 15:20 33,1 C 35,0 C 28,3 C 45 % 1009,7 hPa 0,0 l/m 2 min 0 min 861 W/m 16,1 km/h (3 Bft) 100,00 %
23.06.2022 15:22 33,2 C 35,0 C 28,3 C 45 % 1009,7 hPa 0,0 l/m 2 min 0 min 862 W/m 9,7 km/h (2 Bft) 100,00 %
23.06.2022 15:24 33,1 C 33,9 C 27,8 C 45 % 1009,6 hPa 0,0 l/m 2 min 0 min 862 W/m 22,5 km/h (4 Bft) 100,00 %
23.06.2022 15:26 33,1 C 33,9 C 28,3 C 45 % 1009,7 hPa 0,0 l/m 2 min 0 min 862 W/m 16,1 km/h (3 Bft) 100,00 %
23.06.2022 15:28 33,1 C 35,0 C 28,3 C 45 % 1009,6 hPa 0,0 l/m 2 min 0 min 861 W/m 9,7 km/h (2 Bft) 100,00 %
23.06.2022 15:30 33,1 C 34,4 C 28,3 C 44 % 1009,6 hPa 0,0 l/m 2 min 0 min 857 W/m 16,1 km/h (3 Bft) 100,00 %
23.06.2022 15:32 33,1 C 34,4 C 28,3 C 45 % 1009,5 hPa 0,0 l/m 2 min 0 min 847 W/m 6,4 km/h (2 Bft) 100,00 %
23.06.2022 15:34 33,2 C 35,0 C 28,3 C 46 % 1009,5 hPa 0,0 l/m 2 min 0 min 846 W/m 12,9 km/h (3 Bft) 97,87 %
23.06.2022 15:36 33,2 C 35,0 C 28,3 C 45 % 1009,5 hPa 0,0 l/m 2 min 0 min 845 W/m 12,9 km/h (3 Bft) 100,00 %
23.06.2022 15:38 33,2 C 34,4 C 28,3 C 44 % 1009,5 hPa 0,0 l/m 2 min 0 min 844 W/m 16,1 km/h (3 Bft) 100,00 %
23.06.2022 15:40 33,2 C 34,4 C 28,3 C 45 % 1009,5 hPa 0,0 l/m 2 min 0 min 844 W/m 12,9 km/h (3 Bft) 100,00 %
23.06.2022 15:42 33,2 C 34,4 C 28,3 C 46 % 1009,5 hPa 0,0 l/m 2 min 0 min 839 W/m 16,1 km/h (3 Bft) 100,00 %
23.06.2022 15:44 33,2 C 35,0 C 28,3 C 46 % 1009,5 hPa 0,0 l/m 2 min 0 min 837 W/m 12,9 km/h (3 Bft) 100,00 %
23.06.2022 15:46 33,2 C 35,0 C 28,3 C 45 % 1009,5 hPa 0,0 l/m 2 min 0 min 836 W/m 9,7 km/h (2 Bft) 100,00 %
23.06.2022 15:48 33,2 C 35,0 C 28,3 C 44 % 1009,4 hPa 0,0 l/m 2 min 0 min 838 W/m 12,9 km/h (3 Bft) 100,00 %
23.06.2022 15:50 33,2 C 34,4 C 28,3 C 43 % 1009,5 hPa 0,0 l/m 2 min 0 min 833 W/m 19,3 km/h (3 Bft) 95,74 %
23.06.2022 15:52 33,2 C 35,0 C 28,3 C 44 % 1009,4 hPa 0,0 l/m 2 min 0 min 826 W/m 9,7 km/h (2 Bft) 97,87 %
23.06.2022 15:54 33,2 C 35,0 C 28,3 C 45 % 1009,4 hPa 0,0 l/m 2 min 0 min 821 W/m 9,7 km/h (2 Bft) 100,00 %
23.06.2022 15:56 33,2 C 35,0 C 28,3 C 44 % 1009,4 hPa 0,0 l/m 2 min 0 min 816 W/m 12,9 km/h (3 Bft) 97,87 %
23.06.2022 15:58 33,2 C 35,6 C 28,9 C 44 % 1009,4 hPa 0,0 l/m 2 min 0 min 807 W/m 12,9 km/h (3 Bft) 97,87 %
23.06.2022 16:00 33,3 C 36,1 C 28,9 C 44 % 1009,3 hPa 0,0 l/m 2 min 0 min 804 W/m 12,9 km/h (3 Bft) 97,83 %
23.06.2022 16:02 33,3 C 36,1 C 28,3 C 43 % 1009,3 hPa 0,0 l/m 2 min 0 min 800 W/m 9,7 km/h (2 Bft) 97,87 %
23.06.2022 16:04 33,3 C 35,6 C 28,3 C 44 % 1009,2 hPa 0,0 l/m 2 min 0 min 799 W/m 16,1 km/h (3 Bft) 97,87 %
23.06.2022 16:06 33,4 C 36,1 C 28,3 C 45 % 1009,3 hPa 0,0 l/m 2 min 0 min 798 W/m 12,9 km/h (3 Bft) 97,87 %
23.06.2022 16:08 33,4 C 35,6 C 28,3 C 45 % 1009,2 hPa 0,0 l/m 2 min 0 min 800 W/m 16,1 km/h (3 Bft) 97,87 %
23.06.2022 16:10 33,4 C 36,7 C 28,9 C 46 % 1009,2 hPa 0,0 l/m 2 min 0 min 824 W/m 6,4 km/h (2 Bft) 95,74 %
23.06.2022 16:12 33,3 C 36,1 C 28,3 C 45 % 1009,2 hPa 0,0 l/m 2 min 0 min 837 W/m 16,1 km/h (3 Bft) 95,65 %
23.06.2022 16:14 33,3 C 36,1 C 28,3 C 45 % 1009,2 hPa 0,0 l/m 2 min 0 min 844 W/m 12,9 km/h (3 Bft) 95,74 %
23.06.2022 16:16 33,2 C 35,6 C 28,3 C 46 % 1009,2 hPa 0,0 l/m 2 min 0 min 834 W/m 16,1 km/h (3 Bft) 95,74 %
23.06.2022 16:18 33,1 C 35,6 C 28,3 C 45 % 1009,2 hPa 0,0 l/m 2 min 0 min 794 W/m 12,9 km/h (3 Bft) 95,74 %
23.06.2022 16:20 33,1 C 35,6 C 28,3 C 46 % 1009,1 hPa 0,0 l/m 2 min 0 min 794 W/m 12,9 km/h (3 Bft) 93,62 %
23.06.2022 16:22 32,9 C 35,6 C 27,8 C 45 % 1009,1 hPa 0,0 l/m 2 min 0 min 774 W/m 12,9 km/h (3 Bft) 95,74 %
23.06.2022 16:24 32,9 C 36,1 C 27,8 C 46 % 1008,9 hPa 0,0 l/m 2 min 0 min 777 W/m 9,7 km/h (2 Bft) 95,65 %
23.06.2022 16:26 32,9 C 36,7 C 27,8 C 45 % 1009,0 hPa 0,0 l/m 2 min 0 min 775 W/m 6,4 km/h (2 Bft) 93,62 %
23.06.2022 16:28 32,9 C 36,7 C 28,3 C 45 % 1009,0 hPa 0,0 l/m 2 min 0 min 774 W/m 9,7 km/h (2 Bft) 97,87 %
23.06.2022 16:30 33,0 C 37,2 C 28,3 C 46 % 1009,0 hPa 0,0 l/m 2 min 0 min 780 W/m 6,4 km/h (2 Bft) 95,74 %
23.06.2022 16:32 33,1 C 37,2 C 28,3 C 46 % 1009,0 hPa 0,0 l/m 2 min 0 min 766 W/m 12,9 km/h (3 Bft) 97,87 %
23.06.2022 16:34 33,1 C 37,2 C 28,3 C 46 % 1008,9 hPa 0,0 l/m 2 min 0 min 767 W/m 22,5 km/h (4 Bft) 95,74 %
23.06.2022 16:36 33,1 C 36,7 C 28,3 C 46 % 1008,9 hPa 0,0 l/m 2 min 0 min 770 W/m 19,3 km/h (3 Bft) 95,65 %
23.06.2022 16:38 33,0 C 36,1 C 28,3 C 46 % 1008,9 hPa 0,0 l/m 2 min 0 min 768 W/m 19,3 km/h (3 Bft) 95,74 %
23.06.2022 16:40 32,9 C 35,6 C 28,3 C 47 % 1008,9 hPa 0,0 l/m 2 min 0 min 788 W/m 12,9 km/h (3 Bft) 97,87 %
23.06.2022 16:42 32,8 C 35,6 C 27,8 C 47 % 1008,8 hPa 0,0 l/m 2 min 0 min 756 W/m 12,9 km/h (3 Bft) 95,74 %
23.06.2022 16:44 32,8 C 36,1 C 28,3 C 46 % 1008,8 hPa 0,0 l/m 2 min 0 min 733 W/m 9,7 km/h (2 Bft) 97,87 %
23.06.2022 16:46 32,8 C 36,1 C 28,3 C 48 % 1008,8 hPa 0,0 l/m 2 min 0 min 706 W/m 12,9 km/h (3 Bft) 97,83 %
23.06.2022 16:48 32,8 C 36,7 C 28,3 C 48 % 1008,7 hPa 0,0 l/m 2 min 0 min 725 W/m 12,9 km/h (3 Bft) 95,74 %
23.06.2022 16:50 32,8 C 36,1 C 28,3 C 47 % 1008,7 hPa 0,0 l/m 2 min 0 min 710 W/m 16,1 km/h (3 Bft) 97,87 %
23.06.2022 16:52 32,8 C 37,2 C 27,8 C 48 % 1008,6 hPa 0,0 l/m 2 min 0 min 719 W/m 9,7 km/h (2 Bft) 95,74 %
23.06.2022 16:54 32,8 C 36,7 C 28,3 C 48 % 1008,7 hPa 0,0 l/m 2 min 0 min 737 W/m 12,9 km/h (3 Bft) 93,62 %
23.06.2022 16:56 32,9 C 37,2 C 28,3 C 47 % 1008,7 hPa 0,0 l/m 2 min 0 min 750 W/m 22,5 km/h (4 Bft) 95,74 %
23.06.2022 16:58 32,9 C 37,2 C 28,3 C 48 % 1008,6 hPa 0,0 l/m 2 min 0 min 748 W/m 16,1 km/h (3 Bft) 95,74 %
23.06.2022 17:00 33,0 C 36,7 C 28,3 C 47 % 1008,6 hPa 0,0 l/m 2 min 0 min 726 W/m 12,9 km/h (3 Bft) 97,83 %
23.06.2022 17:02 33,0 C 36,7 C 28,3 C 46 % 1008,7 hPa 0,0 l/m 2 min 0 min 679 W/m 12,9 km/h (3 Bft) 97,87 %
23.06.2022 17:04 32,9 C 36,1 C 28,3 C 47 % 1008,7 hPa 0,0 l/m 2 min 0 min 695 W/m 12,9 km/h (3 Bft) 95,74 %
23.06.2022 17:06 32,9 C 37,2 C 28,3 C 49 % 1008,6 hPa 0,0 l/m 2 min 0 min 685 W/m 9,7 km/h (2 Bft) 93,62 %
23.06.2022 17:08 32,8 C 36,7 C 27,8 C 48 % 1008,5 hPa 0,0 l/m 2 min 0 min 674 W/m 12,9 km/h (3 Bft) 95,74 %
23.06.2022 17:10 32,8 C 36,1 C 27,8 C 47 % 1008,5 hPa 0,0 l/m 2 min 0 min 673 W/m 16,1 km/h (3 Bft) 97,87 %
23.06.2022 17:12 32,8 C 36,7 C 28,3 C 48 % 1008,6 hPa 0,0 l/m 2 min 0 min 675 W/m 16,1 km/h (3 Bft) 97,83 %
23.06.2022 17:14 32,8 C 37,2 C 28,3 C 49 % 1008,5 hPa 0,0 l/m 2 min 0 min 663 W/m 9,7 km/h (2 Bft) 97,87 %
23.06.2022 17:16 32,9 C 37,2 C 28,9 C 48 % 1008,5 hPa 0,0 l/m 2 min 0 min 656 W/m 12,9 km/h (3 Bft) 95,74 %
23.06.2022 17:18 33,0 C 36,7 C 28,9 C 47 % 1008,5 hPa 0,0 l/m 2 min 0 min 650 W/m 9,7 km/h (2 Bft) 97,87 %
23.06.2022 17:20 33,0 C 36,7 C 28,9 C 47 % 1008,5 hPa 0,0 l/m 2 min 0 min 650 W/m 16,1 km/h (3 Bft) 97,87 %
23.06.2022 17:22 32,9 C 36,1 C 28,3 C 48 % 1008,5 hPa 0,0 l/m 2 min 0 min 649 W/m 9,7 km/h (2 Bft) 97,83 %
23.06.2022 17:24 32,8 C 36,1 C 28,3 C 47 % 1008,4 hPa 0,0 l/m 2 min 0 min 638 W/m 19,3 km/h (3 Bft) 95,74 %
23.06.2022 17:26 32,7 C 35,6 C 27,8 C 48 % 1008,4 hPa 0,0 l/m 2 min 0 min 639 W/m 16,1 km/h (3 Bft) 97,87 %
23.06.2022 17:28 32,7 C 35,6 C 27,8 C 48 % 1008,4 hPa 0,0 l/m 2 min 0 min 644 W/m 12,9 km/h (3 Bft) 97,87 %
23.06.2022 17:30 32,7 C 36,1 C 28,3 C 48 % 1008,5 hPa 0,0 l/m 2 min 0 min 652 W/m 16,1 km/h (3 Bft) 97,87 %
23.06.2022 17:32 32,7 C 36,1 C 28,3 C 48 % 1008,4 hPa 0,0 l/m 2 min 0 min 627 W/m 16,1 km/h (3 Bft) 97,87 %
23.06.2022 17:34 32,8 C 36,7 C 28,3 C 48 % 1008,5 hPa 0,0 l/m 2 min 0 min 583 W/m 16,1 km/h (3 Bft) 95,65 %
23.06.2022 17:36 32,9 C 36,1 C 28,3 C 47 % 1008,5 hPa 0,0 l/m 2 min 0 min 604 W/m 12,9 km/h (3 Bft) 93,62 %
23.06.2022 17:38 32,8 C 35,6 C 28,3 C 47 % 1008,4 hPa 0,0 l/m 2 min 0 min 612 W/m 16,1 km/h (3 Bft) 95,74 %
23.06.2022 17:40 32,8 C 36,1 C 28,3 C 47 % 1008,4 hPa 0,0 l/m 2 min 0 min 606 W/m 12,9 km/h (3 Bft) 95,74 %
23.06.2022 17:42 32,8 C 36,1 C 28,3 C 47 % 1008,4 hPa 0,0 l/m 2 min 0 min 590 W/m 12,9 km/h (3 Bft) 95,74 %
23.06.2022 17:44 32,8 C 36,7 C 28,3 C 48 % 1008,3 hPa 0,0 l/m 2 min 0 min 580 W/m 9,7 km/h (2 Bft) 95,74 %
23.06.2022 17:46 32,9 C 37,2 C 28,9 C 47 % 1008,3 hPa 0,0 l/m 2 min 0 min 569 W/m 6,4 km/h (2 Bft) 95,74 %
23.06.2022 17:48 32,9 C 37,2 C 28,9 C 47 % 1008,3 hPa 0,0 l/m 2 min 0 min 562 W/m 12,9 km/h (3 Bft) 95,65 %
23.06.2022 17:50 33,1 C 36,7 C 28,9 C 47 % 1008,2 hPa 0,0 l/m 2 min 0 min 549 W/m 9,7 km/h (2 Bft) 97,87 %
23.06.2022 17:52 33,1 C 36,7 C 28,9 C 47 % 1008,2 hPa 0,0 l/m 2 min 0 min 542 W/m 6,4 km/h (2 Bft) 95,74 %
23.06.2022 17:54 33,1 C 37,2 C 28,9 C 47 % 1008,2 hPa 0,0 l/m 2 min 0 min 556 W/m 6,4 km/h (2 Bft) 97,87 %
23.06.2022 17:56 33,1 C 37,2 C 28,9 C 47 % 1008,2 hPa 0,0 l/m 2 min 0 min 559 W/m 6,4 km/h (2 Bft) 97,87 %
23.06.2022 17:58 33,2 C 37,2 C 28,9 C 47 % 1008,2 hPa 0,0 l/m 2 min 0 min 560 W/m 9,7 km/h (2 Bft) 100,00 %
23.06.2022 18:00 33,2 C 37,8 C 28,9 C 47 % 1008,2 hPa 0,0 l/m 2 min 0 min 562 W/m 6,4 km/h (2 Bft) 100,00 %
23.06.2022 18:02 33,3 C 38,9 C 29,4 C 48 % 1008,2 hPa 0,0 l/m 2 min 0 min 558 W/m 6,4 km/h (2 Bft) 100,00 %
23.06.2022 18:04 33,3 C 38,3 C 29,4 C 47 % 1008,1 hPa 0,0 l/m 2 min 0 min 540 W/m 16,1 km/h (3 Bft) 100,00 %
23.06.2022 18:08 33,4 C 37,8 C 29,4 C 46 % 1008,2 hPa 0,0 l/m 4 min 0 min 529 W/m 16,1 km/h (3 Bft) 100,00 %
23.06.2022 18:10 33,4 C 37,8 C 28,9 C 46 % 1008,1 hPa 0,0 l/m 2 min 0 min 508 W/m 6,4 km/h (2 Bft) 100,00 %
23.06.2022 18:12 33,4 C 37,8 C 28,9 C 46 % 1008,0 hPa 0,0 l/m 2 min 0 min 498 W/m 6,4 km/h (2 Bft) 100,00 %
23.06.2022 18:14 33,4 C 37,2 C 28,9 C 46 % 1008,0 hPa 0,0 l/m 2 min 0 min 492 W/m 19,3 km/h (3 Bft) 100,00 %
23.06.2022 18:16 33,4 C 37,2 C 28,9 C 46 % 1008,0 hPa 0,0 l/m 2 min 0 min 486 W/m 12,9 km/h (3 Bft) 100,00 %
23.06.2022 18:18 33,3 C 37,2 C 29,4 C 46 % 1008,0 hPa 0,0 l/m 2 min 0 min 481 W/m 12,9 km/h (3 Bft) 100,00 %
23.06.2022 18:20 33,3 C 37,2 C 28,9 C 46 % 1008,0 hPa 0,0 l/m 2 min 0 min 476 W/m 12,9 km/h (3 Bft) 100,00 %
23.06.2022 18:22 33,3 C 37,2 C 28,9 C 46 % 1008,0 hPa 0,0 l/m 2 min 0 min 468 W/m 12,9 km/h (3 Bft) 100,00 %
23.06.2022 18:24 33,3 C 37,8 C 28,9 C 46 % 1008,1 hPa 0,0 l/m 2 min 0 min 466 W/m 12,9 km/h (3 Bft) 100,00 %
23.06.2022 18:26 33,4 C 37,8 C 29,4 C 46 % 1008,0 hPa 0,0 l/m 2 min 0 min 464 W/m 9,7 km/h (2 Bft) 100,00 %
23.06.2022 18:28 33,4 C 38,3 C 29,4 C 46 % 1007,9 hPa 0,0 l/m 2 min 0 min 463 W/m 3,2 km/h (1 Bft) 100,00 %
23.06.2022 18:30 33,4 C 38,3 C 28,9 C 46 % 1007,9 hPa 0,0 l/m 2 min 0 min 462 W/m 12,9 km/h (3 Bft) 100,00 %
23.06.2022 18:32 33,4 C 37,8 C 28,9 C 46 % 1007,9 hPa 0,0 l/m 2 min 0 min 465 W/m 12,9 km/h (3 Bft) 100,00 %
23.06.2022 18:34 33,3 C 36,7 C 28,3 C 46 % 1007,9 hPa 0,0 l/m 2 min 0 min 472 W/m 6,4 km/h (2 Bft) 100,00 %
23.06.2022 18:36 33,2 C 36,1 C 28,3 C 47 % 1007,8 hPa 0,0 l/m 2 min 0 min 477 W/m 12,9 km/h (3 Bft) 100,00 %
23.06.2022 18:38 33,2 C 36,7 C 28,9 C 47 % 1007,8 hPa 0,0 l/m 2 min 0 min 479 W/m 6,4 km/h (2 Bft) 100,00 %
23.06.2022 18:40 33,2 C 37,2 C 28,9 C 47 % 1007,7 hPa 0,0 l/m 2 min 0 min 493 W/m 6,4 km/h (2 Bft) 100,00 %
23.06.2022 18:42 33,3 C 37,2 C 28,9 C 47 % 1007,7 hPa 0,0 l/m 2 min 0 min 504 W/m 9,7 km/h (2 Bft) 100,00 %
23.06.2022 18:44 33,3 C 37,2 C 29,4 C 48 % 1007,7 hPa 0,0 l/m 2 min 0 min 475 W/m 12,9 km/h (3 Bft) 100,00 %
23.06.2022 18:46 33,4 C 37,2 C 29,4 C 47 % 1007,7 hPa 0,0 l/m 2 min 0 min 499 W/m 9,7 km/h (2 Bft) 100,00 %
23.06.2022 18:48 33,4 C 36,1 C 28,9 C 47 % 1007,7 hPa 0,0 l/m 2 min 2 min 484 W/m 12,9 km/h (3 Bft) 100,00 %
23.06.2022 18:50 33,4 C 35,6 C 28,9 C 48 % 1007,7 hPa 0,0 l/m 2 min 2 min 335 W/m 12,9 km/h (3 Bft) 100,00 %
23.06.2022 18:52 33,3 C 34,4 C 28,9 C 48 % 1007,7 hPa 0,0 l/m 2 min 0 min 217 W/m 6,4 km/h (2 Bft) 100,00 %
23.06.2022 18:54 33,2 C 33,3 C 28,3 C 48 % 1007,7 hPa 0,0 l/m 0 min 2 min 187 W/m 12,9 km/h (3 Bft) 97,87 %
23.06.2022 18:56 33,1 C 32,8 C 28,3 C 48 % 1007,7 hPa 0,0 l/m 0 min 2 min 198 W/m 6,4 km/h (2 Bft) 100,00 %
23.06.2022 18:58 32,9 C 32,2 C 28,3 C 48 % 1007,6 hPa 0,0 l/m 0 min 0 min 150 W/m 6,4 km/h (2 Bft) 97,87 %
23.06.2022 19:00 32,7 C 31,7 C 27,8 C 49 % 1007,6 hPa 0,0 l/m 0 min 0 min 118 W/m 9,7 km/h (2 Bft) 97,87 %
23.06.2022 19:02 32,6 C 31,7 C 27,8 C 49 % 1007,6 hPa 0,0 l/m 0 min 0 min 114 W/m 6,4 km/h (2 Bft) 95,74 %
23.06.2022 19:04 32,4 C 31,1 C 27,8 C 49 % 1007,6 hPa 0,0 l/m 0 min 0 min 121 W/m 12,9 km/h (3 Bft) 97,87 %
23.06.2022 19:06 32,3 C 31,1 C 27,2 C 50 % 1007,7 hPa 0,0 l/m 0 min 0 min 126 W/m 6,4 km/h (2 Bft) 97,87 %
23.06.2022 19:08 32,2 C 31,1 C 27,2 C 50 % 1007,8 hPa 0,0 l/m 0 min 0 min 129 W/m 6,4 km/h (2 Bft) 95,65 %
23.06.2022 19:10 32,0 C 31,1 C 27,2 C 51 % 1007,8 hPa 0,0 l/m 0 min 0 min 138 W/m 6,4 km/h (2 Bft) 97,87 %
23.06.2022 19:12 31,9 C 30,6 C 27,2 C 51 % 1007,8 hPa 0,0 l/m 0 min 0 min 110 W/m 6,4 km/h (2 Bft) 93,62 %
23.06.2022 19:14 31,8 C 30,6 C 26,7 C 52 % 1007,8 hPa 0,0 l/m 0 min 0 min 99 W/m 6,4 km/h (2 Bft) 93,62 %
23.06.2022 19:16 31,7 C 30,6 C 26,7 C 51 % 1007,9 hPa 0,0 l/m 0 min 0 min 97 W/m 3,2 km/h (1 Bft) 95,74 %
23.06.2022 19:18 31,6 C 30,0 C 26,7 C 51 % 1007,9 hPa 0,0 l/m 0 min 0 min 102 W/m 6,4 km/h (2 Bft) 95,74 %
23.06.2022 19:20 31,6 C 30,0 C 26,7 C 52 % 1007,8 hPa 0,0 l/m 0 min 0 min 118 W/m 12,9 km/h (3 Bft) 95,74 %
23.06.2022 19:22 31,5 C 30,6 C 26,7 C 52 % 1007,8 hPa 0,0 l/m 0 min 0 min 110 W/m 6,4 km/h (2 Bft) 95,65 %
23.06.2022 19:24 31,4 C 30,0 C 26,7 C 52 % 1007,8 hPa 0,0 l/m 0 min 0 min 101 W/m 9,7 km/h (2 Bft) 95,74 %
23.06.2022 19:26 31,4 C 30,0 C 26,7 C 52 % 1007,9 hPa 0,0 l/m 0 min 0 min 99 W/m 6,4 km/h (2 Bft) 95,74 %
23.06.2022 19:28 31,4 C 30,0 C 26,7 C 53 % 1007,9 hPa 0,0 l/m 0 min 0 min 115 W/m 6,4 km/h (2 Bft) 93,62 %
23.06.2022 19:30 31,3 C 30,0 C 26,1 C 53 % 1007,9 hPa 0,0 l/m 0 min 0 min 127 W/m 6,4 km/h (2 Bft) 95,74 %
23.06.2022 19:32 31,3 C 30,0 C 26,1 C 52 % 1007,8 hPa 0,0 l/m 0 min 0 min 121 W/m 6,4 km/h (2 Bft) 95,65 %
23.06.2022 19:34 31,2 C 30,0 C 26,7 C 53 % 1007,9 hPa 0,0 l/m 0 min 0 min 119 W/m 6,4 km/h (2 Bft) 93,62 %
23.06.2022 19:36 31,2 C 30,0 C 26,7 C 53 % 1007,9 hPa 0,0 l/m 0 min 0 min 113 W/m 9,7 km/h (2 Bft) 97,87 %
23.06.2022 19:38 31,2 C 30,0 C 26,1 C 53 % 1007,9 hPa 0,0 l/m 0 min 0 min 108 W/m 12,9 km/h (3 Bft) 95,74 %
23.06.2022 19:40 31,2 C 30,0 C 26,1 C 53 % 1007,8 hPa 0,0 l/m 0 min 0 min 97 W/m 3,2 km/h (1 Bft) 95,74 %
23.06.2022 19:42 31,1 C 30,0 C 26,1 C 53 % 1007,8 hPa 0,0 l/m 0 min 0 min 87 W/m 6,4 km/h (2 Bft) 97,87 %
23.06.2022 19:44 31,1 C 30,0 C 26,1 C 53 % 1007,8 hPa 0,0 l/m 0 min 0 min 81 W/m 6,4 km/h (2 Bft) 100,00 %
23.06.2022 19:46 31,1 C 30,0 C 26,1 C 53 % 1007,8 hPa 0,0 l/m 0 min 0 min 78 W/m 9,7 km/h (2 Bft) 100,00 %
23.06.2022 19:48 31,0 C 29,4 C 26,1 C 53 % 1007,8 hPa 0,0 l/m 0 min 0 min 76 W/m 9,7 km/h (2 Bft) 97,87 %
23.06.2022 19:50 30,9 C 29,4 C 26,1 C 53 % 1007,8 hPa 0,0 l/m 0 min 0 min 73 W/m 6,4 km/h (2 Bft) 100,00 %
23.06.2022 19:52 30,9 C 29,4 C 26,1 C 54 % 1007,8 hPa 0,0 l/m 0 min 0 min 70 W/m 3,2 km/h (1 Bft) 100,00 %
23.06.2022 19:54 30,8 C 29,4 C 25,6 C 54 % 1007,8 hPa 0,0 l/m 0 min 0 min 61 W/m 9,7 km/h (2 Bft) 100,00 %
23.06.2022 19:56 30,8 C 29,4 C 25,6 C 54 % 1007,8 hPa 0,0 l/m 0 min 0 min 53 W/m 6,4 km/h (2 Bft) 100,00 %
23.06.2022 19:58 30,7 C 28,9 C 25,6 C 54 % 1007,8 hPa 0,0 l/m 0 min 0 min 46 W/m 3,2 km/h (1 Bft) 100,00 %
23.06.2022 20:00 30,7 C 28,9 C 25,6 C 55 % 1007,8 hPa 0,0 l/m 0 min 0 min 41 W/m 6,4 km/h (2 Bft) 100,00 %
23.06.2022 20:02 30,6 C 28,9 C 25,6 C 55 % 1007,8 hPa 0,0 l/m 0 min 0 min 36 W/m 3,2 km/h (1 Bft) 100,00 %
23.06.2022 20:04 30,6 C 28,9 C 25,6 C 55 % 1007,8 hPa 0,0 l/m 0 min 0 min 37 W/m 6,4 km/h (2 Bft) 100,00 %
23.06.2022 20:06 30,5 C 28,9 C 25,6 C 55 % 1007,8 hPa 0,0 l/m 0 min 0 min 39 W/m 6,4 km/h (2 Bft) 100,00 %
23.06.2022 20:08 30,4 C 28,9 C 25,6 C 55 % 1007,8 hPa 0,0 l/m 0 min 0 min 38 W/m 6,4 km/h (2 Bft) 100,00 %
23.06.2022 20:10 30,4 C 28,9 C 25,6 C 55 % 1007,9 hPa 0,0 l/m 0 min 0 min 33 W/m 3,2 km/h (1 Bft) 97,87 %
23.06.2022 20:12 30,4 C 28,9 C 25,0 C 55 % 1007,9 hPa 0,0 l/m 0 min 0 min 28 W/m 3,2 km/h (1 Bft) 97,87 %
23.06.2022 20:14 30,3 C 28,9 C 25,0 C 55 % 1007,9 hPa 0,0 l/m 0 min 0 min 25 W/m 3,2 km/h (1 Bft) 100,00 %
23.06.2022 20:16 30,3 C 28,9 C 25,0 C 56 % 1007,9 hPa 0,0 l/m 0 min 0 min 22 W/m 3,2 km/h (1 Bft) 100,00 %
23.06.2022 20:18 30,3 C 28,9 C 25,0 C 56 % 1007,9 hPa 0,0 l/m 0 min 0 min 20 W/m 3,2 km/h (1 Bft) 100,00 %
23.06.2022 20:20 30,2 C 28,3 C 25,0 C 56 % 1007,9 hPa 0,0 l/m 0 min 0 min 17 W/m 3,2 km/h (1 Bft) 97,83 %
23.06.2022 20:22 30,2 C 28,3 C 25,0 C 56 % 1007,9 hPa 0,0 l/m 0 min 0 min 13 W/m 3,2 km/h (1 Bft) 100,00 %
23.06.2022 20:24 30,1 C 28,3 C 25,0 C 56 % 1008,0 hPa 0,0 l/m 0 min 0 min 12 W/m 9,7 km/h (2 Bft) 97,87 %
23.06.2022 20:26 30,0 C 28,3 C 25,0 C 56 % 1008,2 hPa 0,0 l/m 0 min 0 min 11 W/m 19,3 km/h (3 Bft) 97,87 %
23.06.2022 20:28 29,7 C 27,8 C 24,4 C 58 % 1008,2 hPa 0,0 l/m 0 min 0 min 10 W/m 16,1 km/h (3 Bft) 100,00 %
23.06.2022 20:30 29,3 C 27,2 C 23,9 C 59 % 1008,3 hPa 0,0 l/m 0 min 0 min 9 W/m 12,9 km/h (3 Bft) 97,87 %
23.06.2022 20:32 28,9 C 26,7 C 23,9 C 60 % 1008,2 hPa 0,0 l/m 0 min 0 min 9 W/m 12,9 km/h (3 Bft) 100,00 %
23.06.2022 20:34 28,6 C 26,7 C 23,3 C 61 % 1008,3 hPa 0,0 l/m 0 min 0 min 9 W/m 9,7 km/h (2 Bft) 100,00 %
23.06.2022 20:36 28,3 C 26,1 C 23,3 C 62 % 1008,4 hPa 0,0 l/m 0 min 0 min 7 W/m 12,9 km/h (3 Bft) 100,00 %
23.06.2022 20:38 28,0 C 26,1 C 22,8 C 62 % 1008,4 hPa 0,0 l/m 0 min 0 min 7 W/m 16,1 km/h (3 Bft) 100,00 %
23.06.2022 20:40 27,7 C 26,1 C 22,8 C 63 % 1008,4 hPa 0,0 l/m 0 min 0 min 7 W/m 12,9 km/h (3 Bft) 97,87 %
23.06.2022 20:42 27,4 C 25,6 C 22,8 C 64 % 1008,5 hPa 0,0 l/m 0 min 0 min 7 W/m 16,1 km/h (3 Bft) 100,00 %
23.06.2022 20:44 27,2 C 25,6 C 22,2 C 64 % 1008,5 hPa 0,0 l/m 0 min 0 min 7 W/m 12,9 km/h (3 Bft) 97,83 %
23.06.2022 20:46 27,1 C 25,6 C 22,2 C 65 % 1008,4 hPa 0,0 l/m 0 min 0 min 7 W/m 9,7 km/h (2 Bft) 97,87 %
23.06.2022 20:48 26,8 C 25,6 C 22,2 C 65 % 1008,4 hPa 0,0 l/m 0 min 0 min 7 W/m 16,1 km/h (3 Bft) 97,87 %
23.06.2022 20:50 26,7 C 25,0 C 22,2 C 66 % 1008,4 hPa 0,0 l/m 0 min 0 min 7 W/m 16,1 km/h (3 Bft) 95,74 %
23.06.2022 20:52 26,5 C 25,0 C 21,7 C 66 % 1008,3 hPa 0,0 l/m 0 min 0 min 7 W/m 9,7 km/h (2 Bft) 97,87 %
23.06.2022 20:54 26,3 C 25,0 C 21,7 C 67 % 1008,3 hPa 0,0 l/m 0 min 0 min 7 W/m 16,1 km/h (3 Bft) 97,87 %
23.06.2022 20:56 26,2 C 25,0 C 21,7 C 67 % 1008,4 hPa 0,0 l/m 0 min 0 min 7 W/m 19,3 km/h (3 Bft) 97,83 %
23.06.2022 20:58 26,1 C 25,0 C 21,7 C 68 % 1008,3 hPa 0,0 l/m 0 min 0 min 7 W/m 9,7 km/h (2 Bft) 97,87 %
23.06.2022 21:00 25,9 C 25,0 C 21,7 C 69 % 1008,3 hPa 0,0 l/m 0 min 0 min 7 W/m 12,9 km/h (3 Bft) 95,74 %
23.06.2022 21:02 25,9 C 24,4 C 21,7 C 69 % 1008,3 hPa 0,0 l/m 0 min 0 min 7 W/m 9,7 km/h (2 Bft) 97,87 %
23.06.2022 21:04 25,8 C 24,4 C 21,7 C 69 % 1008,3 hPa 0,0 l/m 0 min 0 min 7 W/m 12,9 km/h (3 Bft) 97,87 %
23.06.2022 21:06 25,8 C 24,4 C 21,7 C 69 % 1008,3 hPa 0,0 l/m 0 min 0 min 7 W/m 12,9 km/h (3 Bft) 97,87 %
23.06.2022 21:08 25,8 C 24,4 C 21,1 C 69 % 1008,3 hPa 0,0 l/m 0 min 0 min 7 W/m 9,7 km/h (2 Bft) 97,83 %
23.06.2022 21:10 25,7 C 24,4 C 21,1 C 70 % 1008,3 hPa 0,0 l/m 0 min 0 min 7 W/m 9,7 km/h (2 Bft) 95,74 %
23.06.2022 21:12 25,7 C 24,4 C 21,1 C 70 % 1008,3 hPa 0,0 l/m 0 min 0 min 7 W/m 12,9 km/h (3 Bft) 95,74 %
23.06.2022 21:14 25,7 C 24,4 C 21,1 C 70 % 1008,3 hPa 0,0 l/m 0 min 0 min 7 W/m 16,1 km/h (3 Bft) 95,74 %
23.06.2022 21:16 25,6 C 24,4 C 21,1 C 70 % 1008,3 hPa 0,0 l/m 0 min 0 min 7 W/m 9,7 km/h (2 Bft) 95,74 %
23.06.2022 21:18 25,6 C 24,4 C 21,1 C 70 % 1008,3 hPa 0,0 l/m 0 min 0 min 7 W/m 9,7 km/h (2 Bft) 95,74 %
23.06.2022 21:20 25,5 C 24,4 C 21,1 C 70 % 1008,3 hPa 0,0 l/m 0 min 0 min 7 W/m 6,4 km/h (2 Bft) 93,48 %
23.06.2022 21:22 25,4 C 24,4 C 21,1 C 71 % 1008,3 hPa 0,0 l/m 0 min 0 min 7 W/m 6,4 km/h (2 Bft) 91,49 %
23.06.2022 21:24 25,3 C 23,9 C 20,6 C 71 % 1008,2 hPa 0,0 l/m 0 min 0 min 7 W/m 16,1 km/h (3 Bft) 93,62 %
23.06.2022 21:26 25,3 C 23,9 C 20,6 C 72 % 1008,3 hPa 0,0 l/m 0 min 0 min 7 W/m 6,4 km/h (2 Bft) 95,74 %
23.06.2022 21:28 25,2 C 23,9 C 20,6 C 72 % 1008,3 hPa 0,0 l/m 0 min 0 min 7 W/m 9,7 km/h (2 Bft) 94,74 %
23.06.2022 21:30 25,1 C 23,9 C 20,6 C 72 % 1008,4 hPa 0,0 l/m 0 min 0 min 7 W/m 9,7 km/h (2 Bft) 95,74 %
23.06.2022 21:32 25,1 C 23,9 C 20,6 C 73 % 1008,3 hPa 0,0 l/m 0 min 0 min 7 W/m 9,7 km/h (2 Bft) 93,62 %
23.06.2022 21:34 25,0 C 23,9 C 20,6 C 73 % 1008,3 hPa 0,0 l/m 0 min 0 min 7 W/m 22,5 km/h (4 Bft) 91,49 %
23.06.2022 21:36 24,9 C 23,3 C 20,6 C 73 % 1008,4 hPa 0,0 l/m 0 min 0 min 7 W/m 12,9 km/h (3 Bft) 93,62 %
23.06.2022 21:38 24,8 C 23,3 C 20,6 C 74 % 1008,4 hPa 0,0 l/m 0 min 0 min 7 W/m 9,7 km/h (2 Bft) 95,65 %
23.06.2022 21:40 24,7 C 23,3 C 20,6 C 75 % 1008,4 hPa 0,0 l/m 0 min 0 min 6 W/m 6,4 km/h (2 Bft) 95,74 %
23.06.2022 21:42 24,7 C 23,3 C 20,0 C 75 % 1008,3 hPa 0,0 l/m 0 min 0 min 5 W/m 12,9 km/h (3 Bft) 97,87 %
23.06.2022 21:44 24,6 C 23,3 C 20,0 C 75 % 1008,3 hPa 0,0 l/m 0 min 0 min 5 W/m 6,4 km/h (2 Bft) 97,87 %
23.06.2022 21:46 24,6 C 23,3 C 20,0 C 76 % 1008,2 hPa 0,0 l/m 0 min 0 min 1 W/m 6,4 km/h (2 Bft) 95,74 %
23.06.2022 21:48 24,4 C 23,3 C 20,0 C 76 % 1008,2 hPa 0,0 l/m 0 min 0 min 0 W/m 6,4 km/h (2 Bft) 97,87 %
23.06.2022 21:50 24,4 C 23,3 C 20,0 C 76 % 1008,1 hPa 0,0 l/m 0 min 0 min 0 W/m 12,9 km/h (3 Bft) 95,65 %
23.06.2022 21:52 24,3 C 23,3 C 20,0 C 76 % 1008,1 hPa 0,0 l/m 0 min 0 min 0 W/m 12,9 km/h (3 Bft) 97,87 %
23.06.2022 21:54 24,3 C 23,3 C 20,0 C 76 % 1008,0 hPa 0,0 l/m 0 min 0 min 0 W/m 9,7 km/h (2 Bft) 97,87 %
23.06.2022 21:56 24,3 C 23,3 C 20,0 C 77 % 1008,0 hPa 0,0 l/m 0 min 0 min 0 W/m 12,9 km/h (3 Bft) 97,87 %
23.06.2022 21:58 24,3 C 23,3 C 20,0 C 77 % 1008,0 hPa 0,0 l/m 0 min 0 min 0 W/m 12,9 km/h (3 Bft) 97,87 %
23.06.2022 22:00 24,3 C 23,3 C 20,0 C 77 % 1008,1 hPa 0,0 l/m 0 min 0 min 0 W/m 6,4 km/h (2 Bft) 97,87 %
23.06.2022 22:02 24,3 C 23,3 C 20,0 C 77 % 1008,0 hPa 0,0 l/m 0 min 0 min 0 W/m 9,7 km/h (2 Bft) 97,83 %
23.06.2022 22:04 24,2 C 23,3 C 20,0 C 77 % 1007,9 hPa 0,0 l/m 0 min 0 min 0 W/m 6,4 km/h (2 Bft) 97,87 %
23.06.2022 22:06 24,2 C 23,3 C 20,0 C 77 % 1007,9 hPa 0,0 l/m 0 min 0 min 0 W/m 9,7 km/h (2 Bft) 97,87 %
23.06.2022 22:08 24,2 C 23,3 C 20,0 C 77 % 1008,0 hPa 0,0 l/m 0 min 0 min 0 W/m 9,7 km/h (2 Bft) 95,74 %
23.06.2022 22:10 24,2 C 23,3 C 20,0 C 77 % 1008,0 hPa 0,0 l/m 0 min 0 min 0 W/m 3,2 km/h (1 Bft) 97,87 %
23.06.2022 22:12 24,2 C 23,3 C 20,0 C 78 % 1008,1 hPa 0,0 l/m 0 min 0 min 0 W/m 9,7 km/h (2 Bft) 97,87 %
23.06.2022 22:14 24,1 C 23,3 C 20,0 C 78 % 1008,1 hPa 0,0 l/m 0 min 0 min 0 W/m 6,4 km/h (2 Bft) 97,83 %
23.06.2022 22:16 24,1 C 23,3 C 20,0 C 77 % 1008,0 hPa 0,0 l/m 0 min 0 min 0 W/m 9,7 km/h (2 Bft) 100,00 %
23.06.2022 22:18 24,1 C 23,3 C 20,0 C 77 % 1007,9 hPa 0,0 l/m 0 min 0 min 0 W/m 9,7 km/h (2 Bft) 100,00 %
23.06.2022 22:20 24,1 C 23,3 C 20,0 C 78 % 1008,0 hPa 0,0 l/m 0 min 0 min 0 W/m 3,2 km/h (1 Bft) 97,87 %
23.06.2022 22:22 24,1 C 23,3 C 20,0 C 78 % 1008,0 hPa 0,0 l/m 0 min 0 min 0 W/m 6,4 km/h (2 Bft) 97,87 %
23.06.2022 22:24 24,1 C 23,3 C 20,0 C 78 % 1008,0 hPa 0,0 l/m 0 min 0 min 0 W/m 6,4 km/h (2 Bft) 100,00 %
23.06.2022 22:26 24,0 C 22,8 C 20,0 C 78 % 1008,0 hPa 0,0 l/m 0 min 0 min 0 W/m 3,2 km/h (1 Bft) 100,00 %
23.06.2022 22:28 24,0 C 22,8 C 20,0 C 78 % 1008,0 hPa 0,0 l/m 0 min 0 min 0 W/m 6,4 km/h (2 Bft) 97,87 %
23.06.2022 22:30 23,9 C 22,8 C 20,0 C 78 % 1007,9 hPa 0,0 l/m 0 min 0 min 0 W/m 3,2 km/h (1 Bft) 100,00 %
23.06.2022 22:32 23,9 C 22,8 C 20,0 C 78 % 1007,9 hPa 0,0 l/m 0 min 0 min 0 W/m 3,2 km/h (1 Bft) 100,00 %
23.06.2022 22:34 23,9 C 22,8 C 20,0 C 78 % 1008,0 hPa 0,0 l/m 0 min 0 min 0 W/m 3,2 km/h (1 Bft) 100,00 %
23.06.2022 22:36 23,9 C 22,8 C 20,0 C 78 % 1007,9 hPa 0,0 l/m 0 min 0 min 0 W/m 12,9 km/h (3 Bft) 100,00 %
23.06.2022 22:38 23,9 C 22,8 C 20,0 C 78 % 1007,9 hPa 0,0 l/m 0 min 0 min 0 W/m 6,4 km/h (2 Bft) 100,00 %
23.06.2022 22:40 23,9 C 22,8 C 20,0 C 78 % 1007,8 hPa 0,0 l/m 0 min 0 min 0 W/m 3,2 km/h (1 Bft) 100,00 %
23.06.2022 22:42 23,9 C 22,8 C 20,0 C 78 % 1007,8 hPa 0,0 l/m 0 min 0 min 0 W/m 3,2 km/h (1 Bft) 97,87 %
23.06.2022 22:44 23,9 C 22,8 C 20,0 C 78 % 1007,8 hPa 0,0 l/m 0 min 0 min 0 W/m 3,2 km/h (1 Bft) 100,00 %
23.06.2022 22:45 23,9 C 22,8 C 20,0 C 78 % 1007,8 hPa 0,0 l/m 0 min 0 min 0 W/m 3,2 km/h (1 Bft) 100,00 %
23.06.2022 22:48 23,8 C 22,8 C 20,0 C 78 % 1007,7 hPa 0,0 l/m 0 min 0 min 0 W/m 3,2 km/h (1 Bft) 97,65 %
23.06.2022 22:50 23,8 C 22,8 C 20,0 C 78 % 1007,7 hPa 0,0 l/m 0 min 0 min 0 W/m 6,4 km/h (2 Bft) 100,00 %
23.06.2022 22:52 23,8 C 22,8 C 19,4 C 78 % 1007,7 hPa 0,0 l/m 0 min 0 min 0 W/m 6,4 km/h (2 Bft) 95,74 %
23.06.2022 22:54 23,8 C 22,8 C 20,0 C 78 % 1007,7 hPa 0,0 l/m 0 min 0 min 0 W/m 6,4 km/h (2 Bft) 97,87 %
23.06.2022 22:56 23,8 C 22,8 C 20,0 C 78 % 1007,6 hPa 0,0 l/m 0 min 0 min 0 W/m 9,7 km/h (2 Bft) 100,00 %
23.06.2022 22:58 23,8 C 22,8 C 20,0 C 78 % 1007,7 hPa 0,0 l/m 0 min 0 min 0 W/m 6,4 km/h (2 Bft) 100,00 %
23.06.2022 23:00 23,8 C 22,8 C 20,0 C 79 % 1007,6 hPa 0,0 l/m 0 min 0 min 0 W/m 3,2 km/h (1 Bft) 100,00 %
23.06.2022 23:02 23,8 C 22,8 C 20,0 C 79 % 1007,7 hPa 0,0 l/m 0 min 0 min 0 W/m 0,0 km/h (0 Bft) 97,87 %
23.06.2022 23:04 23,8 C 22,8 C 19,4 C 79 % 1007,7 hPa 0,0 l/m 0 min 0 min 0 W/m 3,2 km/h (1 Bft) 100,00 %
23.06.2022 23:06 23,7 C 22,8 C 19,4 C 79 % 1007,7 hPa 0,0 l/m 0 min 0 min 0 W/m 3,2 km/h (1 Bft) 97,87 %
23.06.2022 23:08 23,7 C 22,8 C 19,4 C 79 % 1007,7 hPa 0,0 l/m 0 min 0 min 0 W/m 3,2 km/h (1 Bft) 97,87 %
23.06.2022 23:10 23,7 C 22,8 C 19,4 C 79 % 1007,7 hPa 0,0 l/m 0 min 0 min 0 W/m 0,0 km/h (0 Bft) 97,83 %
23.06.2022 23:12 23,7 C 22,8 C 19,4 C 79 % 1007,7 hPa 0,0 l/m 0 min 0 min 0 W/m 0,0 km/h (0 Bft) 97,87 %
23.06.2022 23:14 23,6 C 22,8 C 19,4 C 79 % 1007,7 hPa 0,0 l/m 0 min 0 min 0 W/m 0,0 km/h (0 Bft) 97,87 %
23.06.2022 23:16 23,6 C 22,2 C 19,4 C 79 % 1007,8 hPa 0,0 l/m 0 min 0 min 0 W/m 6,4 km/h (2 Bft) 97,87 %
23.06.2022 23:18 23,6 C 22,2 C 19,4 C 80 % 1007,8 hPa 0,0 l/m 0 min 0 min 0 W/m 3,2 km/h (1 Bft) 97,87 %
23.06.2022 23:20 23,5 C 22,2 C 19,4 C 80 % 1007,7 hPa 0,0 l/m 0 min 0 min 0 W/m 3,2 km/h (1 Bft) 97,87 %
23.06.2022 23:22 23,4 C 22,2 C 19,4 C 80 % 1007,7 hPa 0,0 l/m 0 min 0 min 0 W/m 0,0 km/h (0 Bft) 97,83 %
23.06.2022 23:24 23,4 C 22,2 C 18,9 C 81 % 1007,7 hPa 0,0 l/m 0 min 0 min 0 W/m 3,2 km/h (1 Bft) 95,74 %
23.06.2022 23:26 23,4 C 22,2 C 18,9 C 81 % 1007,7 hPa 0,0 l/m 0 min 0 min 0 W/m 0,0 km/h (0 Bft) 97,87 %
23.06.2022 23:28 23,3 C 22,2 C 19,4 C 81 % 1007,7 hPa 0,0 l/m 0 min 0 min 0 W/m 3,2 km/h (1 Bft) 97,87 %
23.06.2022 23:30 23,3 C 22,2 C 19,4 C 81 % 1007,7 hPa 0,0 l/m 0 min 0 min 0 W/m 3,2 km/h (1 Bft) 97,92 %
23.06.2022 23:32 23,3 C 22,2 C 19,4 C 81 % 1007,7 hPa 0,0 l/m 0 min 0 min 0 W/m 3,2 km/h (1 Bft) 97,87 %
23.06.2022 23:34 23,3 C 22,2 C 18,9 C 81 % 1007,7 hPa 0,0 l/m 0 min 0 min 0 W/m 3,2 km/h (1 Bft) 97,87 %
23.06.2022 23:36 23,3 C 22,2 C 18,9 C 81 % 1007,6 hPa 0,0 l/m 0 min 0 min 0 W/m 0,0 km/h (0 Bft) 95,74 %
23.06.2022 23:38 23,3 C 22,2 C 18,9 C 81 % 1007,6 hPa 0,0 l/m 0 min 0 min 0 W/m 0,0 km/h (0 Bft) 97,83 %
23.06.2022 23:40 23,3 C 22,2 C 18,9 C 81 % 1007,6 hPa 0,0 l/m 0 min 0 min 0 W/m 3,2 km/h (1 Bft) 100,00 %
23.06.2022 23:42 23,3 C 22,2 C 18,9 C 81 % 1007,6 hPa 0,0 l/m 0 min 0 min 0 W/m 3,2 km/h (1 Bft) 100,00 %
23.06.2022 23:44 23,2 C 22,2 C 18,9 C 81 % 1007,5 hPa 0,0 l/m 0 min 0 min 0 W/m 3,2 km/h (1 Bft) 97,87 %
23.06.2022 23:46 23,2 C 22,2 C 18,9 C 81 % 1007,5 hPa 0,0 l/m 0 min 0 min 0 W/m 3,2 km/h (1 Bft) 100,00 %
23.06.2022 23:48 23,2 C 22,2 C 18,9 C 82 % 1007,5 hPa 0,0 l/m 0 min 0 min 0 W/m 3,2 km/h (1 Bft) 97,87 %
23.06.2022 23:50 23,2 C 22,2 C 18,9 C 82 % 1007,5 hPa 0,0 l/m 0 min 0 min 0 W/m 3,2 km/h (1 Bft) 97,83 %
23.06.2022 23:52 23,1 C 22,2 C 18,9 C 82 % 1007,5 hPa 0,0 l/m 0 min 0 min 0 W/m 3,2 km/h (1 Bft) 97,87 %
23.06.2022 23:54 23,1 C 21,7 C 18,9 C 82 % 1007,5 hPa 0,0 l/m 0 min 0 min 0 W/m 3,2 km/h (1 Bft) 97,87 %
23.06.2022 23:56 23,0 C 21,7 C 18,9 C 82 % 1007,5 hPa 0,0 l/m 0 min 0 min 0 W/m 0,0 km/h (0 Bft) 97,87 %
23.06.2022 23:58 22,9 C 21,7 C 18,3 C 83 % 1007,4 hPa 0,0 l/m 0 min 0 min 0 W/m 3,2 km/h (1 Bft) 95,74 %
_ Min-Zeit 05:34 04:52 04:54 15:50 23:58 - - - - 02:28 07:30
Minimum _ 16,4 C 15,6 C 12,2 C 43 % 1007,4 hPa - - - - 0,0 km/h (0 Bft) 63,41 %
_ Max-Zeit 16:06 18:02 13:44 23:58 00:28 00:00 12:08 18:48 13:58 11:26 00:00
Maximum _ 33,4 C 38,9 C 36,7 C 83 % 1012,3 hPa 0,0 l/m 4 min 2 min 931 W/m 29,0 km/h
S-SO (5 Bft)
100,00 %
Durchschnitt _ 25,3 C 25,7 C 21,8 C 62 % 1010,3 hPa #0,0 l/m #11:14 h #8 min. 490 W/m 8,8 km/h (2 Bft) 97,70 %
© 2022 W. Hausmann